GFSNE_500_rhum_000.txt.gz
RH
24 37 48 55 66 70 71 75 76 67 60 66 80 95 98 98 98 97 97 97 97 95 83 87 82 99 90 92 94 92 88 83 88 96 98 94 86 78
31 40 51 66 76 80 76 76 80 75 67 61 59 61 84 87 96 98 98 96 96 96 95 95 90 92 92 98 97 92 88 93 94 100 95 95 79 75
52 65 73 86 84 82 77 74 70 68 66 54 54 52 59 59 83 88 97 97 97 98 86 75 84 87 88 98 100 98 92 95 100 100 87 95 76 71
75 78 86 90 83 80 75 71 68 68 69 61 55 62 59 52 57 70 88 90 91 91 90 84 87 80 87 96 98 100 100 96 100 100 96 96 83 77
100 97 90 87 88 89 86 83 84 82 83 78 65 61 56 47 39 39 50 67 65 98 96 84 87 71 91 97 100 84 92 100 99 100 98 100 97 82
90 92 98 99 98 96 98 98 100 100 95 89 81 70 58 46 39 33 32 49 55 66 98 99 90 75 91 100 100 98 97 99 100 100 95 100 100 98
100 100 100 100 100 100 99 92 97 100 99 94 81 69 59 50 40 34 32 29 25 86 98 100 99 93 89 98 99 100 100 98 100 99 99 100 99 99
91 98 100 100 100 100 100 99 99 94 89 71 62 48 42 34 28 30 30 37 33 37 99 99 97 84 87 94 100 100 100 100 100 99 100 100 100 100
53 53 54 57 63 67 73 76 74 67 59 58 53 49 40 28 21 19 29 30 51 47 60 99 99 100 99 95 98 100 99 100 100 100 100 100 96 99
15 14 15 17 17 21 30 40 44 41 36 32 31 31 23 20 19 20 22 28 34 67 65 72 100 98 99 100 96 99 99 100 100 100 100 98 100 100
12 10 9 9 9 9 11 13 15 17 17 17 15 14 14 14 19 22 34 37 28 57 76 100 100 98 100 99 98 100 99 100 100 100 99 99 100 99
9 8 8 7 8 8 7 7 8 10 11 12 14 17 17 19 29 30 42 32 58 88 94 100 100 100 98 100 100 99 99 100 100 100 99 99 99 94
5 4 4 4 5 5 5 6 7 9 10 12 15 18 27 33 37 31 49 82 97 100 100 100 100 95 100 100 100 99 100 100 100 99 94 100 96 88
5 5 4 5 5 5 6 6 8 9 12 14 20 47 47 49 34 58 100 100 100 97 97 100 100 100 100 100 100 99 100 100 98 99 99 89 83 51
8 7 6 5 5 6 7 9 11 13 15 31 83 76 72 51 60 100 100 100 100 96 100 100 100 100 100 99 100 100 100 100 100 92 82 81 49 4
9 10 6 5 5 7 11 12 20 23 32 85 73 63 58 60 100 100 100 100 99 99 100 100 99 98 98 100 100 100 100 100 88 82 81 40 7 4
10 10 6 6 7 9 12 27 35 39 75 65 62 60 85 94 100 100 100 100 100 100 100 100 99 100 100 100 100 100 95 81 81 73 20 4 4 7
12 10 6 8 8 10 27 41 41 76 72 68 96 100 86 100 100 100 100 100 100 100 100 100 100 100 100 100 96 88 83 80 40 7 2 7 20 23
10 9 6 8 10 28 40 45 82 94 100 100 100 67 92 100 100 100 100 100 100 100 100 100 100 100 98 95 84 81 48 6 4 8 16 21 30 43
7 8 6 9 20 46 43 74 100 100 100 100 100 100 100 100 100 100 100 100 100 100 100 100 100 93 87 82 47 8 6 10 15 21 34 64 91 100
8 8 6 12 42 40 68 96 100 100 100 100 100 100 100 100 100 100 100 100 100 100 100 97 95 89 35 7 7 9 14 26 52 79 96 100 98 74
10 7 8 25 36 67 89 100 100 100 100 100 100 100 100 100 100 100 100 100 100 100 100 90 28 9 8 12 15 26 38 48 62 56 60 38 45 52
10 6 11 28 58 86 100 100 100 100 100 100 100 100 100 100 100 100 100 99 100 90 25 8 8 10 14 26 40 49 43 15 6 19 72 86 74 64

GFSNE_500_rhum_003.txt.gz
RH
13 14 15 17 20 29 47 63 88 58 31 29 45 54 71 75 71 78 84 96 100 100 99 97 97 98 91 82 98 100 86 96 94 99 100 100 100 85
12 13 17 24 29 45 75 99 100 100 93 57 61 69 74 70 68 63 59 79 100 97 99 100 99 100 100 97 100 100 99 92 91 100 99 100 100 91
11 16 22 31 41 68 96 100 100 100 100 86 94 95 92 81 76 69 59 54 64 96 90 98 98 98 99 98 100 100 100 87 88 90 100 97 92 100
12 21 35 37 57 87 100 100 100 99 100 97 88 83 84 87 79 81 77 70 61 54 67 79 91 99 98 99 97 99 92 90 94 98 79 87 96 95
47 57 68 86 92 100 100 100 100 100 100 100 91 81 81 80 90 72 86 79 75 72 44 36 45 64 92 98 99 98 98 90 82 94 99 99 98 100
72 82 94 98 96 93 92 91 91 92 93 94 93 88 90 97 100 100 100 92 76 62 44 35 42 55 85 99 100 96 100 77 97 92 98 96 93 99
55 47 38 34 32 30 26 23 22 26 37 57 78 90 92 99 100 100 96 73 81 58 52 41 34 32 43 70 80 98 98 87 95 99 100 99 100 99
30 30 27 25 23 20 18 18 15 13 12 12 18 38 62 83 91 89 76 70 62 38 32 36 33 30 28 31 93 99 98 99 99 100 99 99 99 100
26 23 22 21 18 14 12 10 8 7 7 8 9 11 17 31 48 56 59 55 54 47 33 22 23 33 40 54 72 99 100 100 99 100 100 99 100 100
22 18 15 12 10 9 8 6 5 4 5 7 8 8 9 12 16 23 26 25 22 19 15 14 14 18 43 100 78 99 100 99 100 99 99 100 100 98
12 10 8 6 5 5 5 4 3 3 3 4 7 8 10 11 13 14 13 14 12 12 13 17 21 27 33 100 100 100 99 99 100 100 97 99 100 99
6 5 6 6 6 6 5 4 3 3 4 6 6 8 10 14 18 21 18 14 16 12 27 50 83 38 38 93 100 100 100 99 98 98 99 99 99 100
8 8 10 12 11 10 8 5 4 4 5 6 8 11 16 20 28 39 33 23 27 28 41 100 100 96 100 99 100 100 100 95 100 99 100 100 100 100
19 18 16 13 13 11 8 6 5 5 6 8 11 16 21 28 40 45 52 35 34 40 84 95 94 100 100 100 100 100 99 99 100 100 100 100 100 100
17 16 14 18 18 12 7 6 6 7 10 14 17 22 51 84 93 96 81 51 84 100 100 100 100 100 100 100 100 100 100 100 100 100 100 100 100 100
18 20 22 20 15 10 6 8 9 12 15 15 20 72 100 91 83 75 76 97 100 100 100 100 100 100 100 100 100 100 100 100 100 100 100 100 100 94
15 17 17 13 12 8 7 10 14 17 21 52 88 86 84 73 69 98 100 100 100 100 100 100 100 100 100 100 100 100 100 100 100 100 100 93 77 76
12 10 9 9 9 6 10 14 28 33 78 97 100 99 77 82 100 100 100 100 100 100 100 100 100 100 100 100 100 100 100 100 100 98 88 80 64 13
27 8 6 9 6 10 15 36 49 88 100 100 100 100 100 100 100 100 100 100 100 100 100 100 100 100 100 100 100 100 100 93 87 82 40 7 1 5
30 9 9 8 8 18 43 59 86 100 100 100 100 100 99 99 100 100 100 100 100 100 100 100 100 100 100 100 98 90 82 54 22 4 5 11 18 24
32 12 9 7 15 43 63 91 100 100 100 100 100 100 100 100 100 100 100 100 100 100 100 100 100 100 100 98 62 17 6 6 12 19 30 48 61 76
26 11 7 8 33 51 88 100 100 100 100 100 100 100 100 100 100 100 100 100 100 100 100 100 100 81 34 7 11 24 38 47 50 48 41 26 12 9
16 9 6 15 35 87 100 100 100 100 100 100 100 100 100 100 100 100 100 100 100 100 90 32 9 16 25 36 38 36 35 27 14 9 7 14 47 69

GFSNE_500_rhum_006.txt.gz
RH
8 8 7 6 6 6 9 13 20 13 9 8 16 21 38 59 92 100 100 96 100 100 100 100 100 98 97 99 98 98 99 98 88 77 80 91 91 99
8 7 6 6 7 11 18 32 46 64 58 41 46 55 88 100 100 100 100 100 98 98 95 95 99 97 94 94 98 98 99 96 98 91 96 95 88 92
6 6 9 16 28 43 57 70 76 86 90 69 78 87 90 98 100 100 98 100 100 100 100 97 81 80 76 97 96 98 97 99 98 100 98 95 96 83
10 28 43 51 54 56 62 67 70 71 69 52 47 52 64 76 84 99 100 100 100 100 100 100 88 68 66 70 100 100 100 99 99 99 100 98 96 80
60 73 72 70 67 65 55 43 37 34 35 33 26 25 22 21 29 56 75 94 100 100 100 100 100 99 81 69 63 69 91 97 100 99 92 100 87 82
94 95 92 89 78 66 55 49 45 45 46 40 29 23 21 18 18 17 20 59 84 99 100 100 100 96 95 84 73 76 44 67 94 100 99 100 96 86
79 76 72 63 56 50 43 36 31 26 24 21 18 15 13 11 11 12 14 14 49 78 94 100 100 89 94 65 57 46 41 46 71 98 98 99 98 96
42 44 43 45 43 36 29 23 22 19 14 12 10 8 6 7 8 8 8 10 14 60 90 96 100 100 100 96 75 50 47 38 38 67 99 99 91 100
13 12 11 11 11 11 12 11 9 7 6 5 4 4 5 4 4 4 5 6 10 26 66 85 93 91 96 90 83 52 43 35 37 40 40 96 100 100
7 9 10 9 9 8 8 6 6 6 7 6 4 4 4 4 3 4 7 8 9 11 29 48 67 76 62 48 38 32 36 35 35 44 64 99 100 100
14 11 10 12 18 22 19 16 13 12 12 10 6 5 5 4 4 6 8 9 9 11 14 23 34 40 36 36 34 27 22 23 51 90 80 97 100 100
8 9 10 11 16 20 20 18 14 12 11 9 7 6 5 6 7 8 9 10 12 11 15 14 14 15 14 14 15 15 16 20 41 100 99 100 100 100
8 9 11 11 11 10 12 15 15 13 10 6 7 8 9 10 13 23 29 15 16 14 16 17 16 15 14 27 38 22 22 82 93 100 100 100 99 100
8 12 12 12 12 16 17 16 14 10 7 8 11 14 17 35 28 24 23 22 23 21 37 33 34 37 78 100 71 32 44 94 100 100 100 97 100 100
11 25 26 12 12 14 13 12 9 7 10 13 22 30 29 31 40 58 79 52 68 64 63 67 64 46 98 100 92 100 99 99 100 100 100 100 100 100
12 32 36 27 10 7 9 9 6 10 15 22 32 38 52 82 98 83 82 77 76 98 100 100 100 100 99 100 100 100 98 100 100 100 100 100 100 100
10 23 33 32 10 9 10 6 10 16 24 55 89 100 100 94 83 67 67 84 96 99 96 97 98 100 100 100 100 100 100 100 100 100 100 100 100 100
9 21 36 24 9 9 7 10 17 42 82 100 100 100 97 70 67 92 100 100 100 100 100 100 100 100 100 100 100 100 100 100 100 100 100 100 100 100
10 32 36 15 10 7 11 26 59 100 100 100 100 100 97 80 100 100 100 100 100 100 100 100 100 100 100 100 100 100 100 100 100 100 100 100 100 100
16 38 29 11 7 10 32 70 100 100 100 100 99 98 99 97 100 100 100 100 99 100 100 100 100 100 100 100 100 100 100 100 100 100 99 80 42 14
30 37 17 8 8 32 75 100 100 100 100 100 100 98 93 96 100 100 100 100 100 100 100 100 100 100 100 100 100 100 98 90 57 25 9 7 10 14
36 26 9 6 27 70 100 100 100 100 100 100 100 100 100 100 100 100 100 100 100 100 100 100 100 100 100 95 74 43 20 17 24 32 42 51 54 54
34 11 6 18 66 100 100 99 100 100 100 100 100 100 100 100 100 100 100 100 100 100 100 100 99 74 38 35 40 39 37 36 34 30 24 17 12 10

GFSNE_500_rhum_009.txt.gz
RH
13 10 8 7 6 4 4 11 31 24 7 9 27 39 39 42 49 70 98 100 100 100 100 100 100 100 98 97 92 98 91 96 98 100 89 98 98 96
9 7 6 5 4 4 13 40 74 88 75 55 50 51 53 61 68 68 69 84 99 100 100 100 100 100 97 100 99 86 86 82 98 95 94 92 99 97
8 6 4 3 7 13 25 50 77 98 99 71 71 57 50 48 46 44 43 44 52 67 86 100 100 100 100 99 94 98 100 91 76 75 100 99 98 100
5 3 6 11 15 26 43 60 75 87 100 94 79 68 57 44 35 33 34 31 24 21 25 52 79 100 98 99 100 96 87 95 94 96 100 100 99 100
5 8 10 11 11 13 15 16 25 40 53 59 70 70 63 56 48 44 41 34 25 23 20 18 24 62 91 100 100 100 97 92 80 71 70 99 99 100
10 10 9 6 4 4 4 5 7 11 14 17 23 35 41 40 36 33 30 28 27 23 20 15 15 19 50 95 97 100 100 96 86 70 68 87 96 98
11 7 4 5 6 7 8 8 8 8 8 8 7 9 13 18 22 31 40 40 34 21 10 9 10 11 22 57 90 100 99 98 89 84 74 66 67 97
7 5 7 8 8 7 7 8 8 8 8 10 9 9 8 7 6 7 9 8 5 4 4 5 8 9 14 42 82 100 99 98 98 87 81 81 77 93
5 7 8 9 9 7 6 6 7 9 12 16 17 17 12 11 9 6 4 3 3 4 4 5 7 8 13 27 76 100 98 93 91 66 99 90 78 51
8 8 9 9 9 8 6 7 8 10 11 14 17 18 17 15 11 8 6 4 5 4 3 4 5 6 11 20 55 96 90 87 96 84 95 85 68 47
10 8 8 8 8 8 8 8 8 13 18 20 21 19 17 13 9 7 7 5 5 6 5 6 7 7 10 14 37 94 100 91 97 98 91 87 67 33
10 9 9 8 7 10 24 17 8 10 12 13 15 13 11 9 8 10 13 13 10 15 14 17 10 9 10 14 34 58 90 84 60 64 89 38 28 37
9 9 10 9 9 25 33 30 10 7 10 8 8 11 13 12 20 26 66 86 37 21 40 43 20 11 10 13 20 37 47 52 52 57 58 35 27 86
9 9 10 10 10 23 32 26 6 8 7 6 12 16 22 50 78 88 80 37 20 18 21 19 20 15 13 13 15 20 24 26 27 31 39 33 25 93
10 10 11 10 10 25 36 12 7 8 7 13 20 54 87 96 98 74 79 60 37 40 68 52 28 21 15 13 13 14 14 16 18 15 15 16 58 99
10 12 15 11 13 37 24 10 8 9 17 38 79 100 100 100 100 99 79 69 84 87 99 78 60 52 27 19 22 66 96 100 52 41 33 95 100 100
15 28 18 13 34 32 12 8 11 34 90 100 100 100 100 100 100 83 72 78 98 100 100 100 100 100 57 84 100 100 100 98 95 88 94 99 100 100
29 28 15 30 32 10 8 18 83 100 98 99 100 100 100 88 70 84 98 100 100 100 100 100 94 96 90 94 91 95 99 100 100 100 100 100 100 100
33 21 28 33 12 8 33 94 100 96 100 100 100 100 87 79 100 100 100 100 100 100 100 100 100 100 100 100 100 100 100 100 100 100 100 100 100 100
25 31 32 15 7 39 96 95 96 100 100 100 100 90 94 100 100 100 100 100 100 100 100 100 100 100 100 100 100 100 100 100 100 100 100 100 100 100
26 29 16 7 36 95 90 98 100 100 100 100 100 100 100 100 100 100 100 100 100 100 100 100 100 100 100 100 100 100 100 100 100 100 100 100 100 100
26 14 6 36 97 89 99 100 100 100 100 100 100 100 100 100 100 100 100 100 100 100 100 100 100 100 100 100 100 100 100 100 99 99 96 89 79 58
15 6 38 98 86 99 100 100 100 100 100 100 100 100 100 100 100 100 100 100 100 100 100 100 100 99 96 92 83 62 50 45 46 41 42 43 50 56

GFSNE_500_rhum_012.txt.gz
RH
19 16 14 12 9 7 7 6 5 4 3 2 3 5 7 9 15 27 58 66 68 91 96 89 86 99 100 100 100 87 97 98 100 88 99 98 99 96
16 13 10 8 7 5 4 4 6 8 7 4 6 7 8 11 15 24 55 78 71 91 100 100 100 100 100 99 97 98 99 73 99 99 94 100 95 99
12 9 8 8 6 4 4 6 7 8 6 4 3 3 4 7 13 21 44 70 82 72 84 98 98 89 85 89 96 90 99 96 96 95 98 76 99 84
8 8 7 6 5 7 8 8 6 4 5 5 4 6 7 7 6 9 18 44 75 82 64 60 52 45 46 56 69 78 87 97 98 85 96 91 92 84
7 7 6 7 10 11 10 5 4 6 7 9 9 6 6 6 6 7 8 10 25 62 76 56 38 32 31 25 21 22 37 59 70 95 68 92 98 95
7 7 8 16 15 10 5 6 7 8 9 9 9 6 6 6 7 8 7 8 8 15 42 63 58 47 33 26 25 24 20 18 38 64 88 78 95 93
7 10 24 19 11 6 8 9 8 8 9 8 7 6 7 9 9 11 16 12 8 8 10 20 43 46 40 32 32 38 38 29 17 33 69 93 92 90
15 26 23 14 7 8 10 9 9 8 8 8 9 9 10 14 14 14 15 18 15 15 10 7 10 23 37 41 44 42 33 18 14 18 68 64 98 82
29 26 19 9 9 10 8 9 9 8 9 27 25 12 9 12 13 15 17 16 15 14 11 7 7 5 6 5 5 4 5 8 11 14 60 70 99 100
30 24 12 8 9 9 8 8 9 8 18 24 31 13 9 11 11 10 10 10 11 10 9 8 7 5 4 4 4 4 5 7 10 14 54 97 100 100
28 17 10 9 11 11 9 9 8 8 16 35 22 9 10 8 8 8 12 16 69 68 99 71 11 5 4 4 4 7 8 9 11 20 76 89 96 100
25 10 10 12 15 11 10 9 8 8 25 24 12 9 6 7 12 15 20 52 80 100 100 74 50 25 18 15 7 6 8 11 13 38 85 76 76 85
17 9 12 21 18 25 21 14 10 21 24 10 8 7 12 16 22 39 58 84 83 100 100 100 100 100 61 68 26 12 10 11 18 49 100 100 76 96
9 12 20 25 29 30 16 13 27 21 10 10 16 20 40 48 83 91 90 84 84 88 81 47 66 85 72 42 37 17 13 12 23 71 98 78 74 87
9 19 21 25 28 21 20 32 15 10 25 43 70 92 92 93 98 98 100 100 100 78 98 95 53 44 38 37 28 16 12 13 24 41 49 82 69 72
14 23 26 26 22 30 33 12 22 66 94 99 100 100 100 100 100 100 100 97 96 100 100 100 100 83 55 26 18 16 14 15 17 24 30 31 29 33
23 25 25 26 33 31 11 39 89 90 98 99 100 100 100 86 72 87 93 99 100 100 100 100 100 98 100 84 20 15 14 14 17 18 20 23 24 22
26 25 24 30 22 10 53 92 90 100 100 100 100 99 92 97 100 100 100 100 100 100 100 100 100 100 79 64 39 26 32 38 38 52 69 39 68 55
26 27 28 17 9 60 92 99 100 100 100 100 100 100 100 100 100 100 100 100 100 100 100 100 100 100 100 78 99 100 100 100 100 100 100 83 97 100
25 28 17 8 52 93 100 100 100 100 100 100 100 100 100 100 100 100 100 100 100 100 100 100 100 100 100 100 100 100 100 100 100 100 100 100 100 100
26 22 8 46 89 100 100 100 100 100 100 100 100 100 100 100 100 100 100 100 100 100 100 100 100 100 100 100 100 100 100 100 100 100 100 100 100 100
26 8 47 89 100 100 100 100 100 100 100 100 100 100 100 100 100 100 100 100 100 100 100 100 100 100 100 100 100 100 100 100 100 100 100 100 100 100
8 52 93 100 100 100 100 100 100 100 100 100 100 100 100 100 100 100 100 100 100 100 100 100 100 100 100 100 100 100 100 100 100 100 100 100 100 100

GFSNE_500_rhum_015.txt.gz
RH
34 28 23 20 17 16 13 10 8 7 6 4 3 3 3 3 6 6 5 4 4 4 4 9 24 58 78 72 71 60 41 48 100 95 100 87 71 98
30 24 21 19 16 12 10 8 7 6 5 4 3 3 5 6 4 4 5 6 6 6 4 4 8 35 92 88 84 98 85 54 64 100 100 98 94 100
26 23 19 14 12 10 8 7 7 8 11 5 7 7 4 3 5 7 8 10 9 6 6 6 5 9 49 100 100 100 100 98 62 70 100 100 97 100
21 16 14 12 10 9 8 8 11 16 14 11 6 4 5 8 8 7 9 8 6 5 6 6 6 6 12 76 100 100 100 100 96 80 72 100 100 94
17 12 10 10 10 10 10 15 18 15 13 6 5 7 8 8 8 7 7 6 5 6 7 8 7 6 7 23 98 100 100 98 100 99 88 80 87 95
10 11 11 12 12 12 20 22 19 16 7 6 7 8 8 9 7 11 11 14 8 8 11 13 12 9 6 8 54 97 86 97 84 86 90 82 73 83
12 12 13 13 16 29 26 22 18 8 7 9 9 8 9 8 13 14 18 11 7 11 13 14 15 16 10 7 18 83 77 61 51 36 31 26 28 45
13 13 14 23 35 29 25 21 8 9 11 11 8 9 9 8 10 20 9 7 7 11 11 13 18 16 15 8 9 44 77 49 32 29 27 22 20 19
13 15 27 38 30 28 24 9 10 14 14 18 12 11 9 20 23 9 8 7 9 13 9 12 14 14 14 10 8 16 61 57 36 28 27 25 27 29
20 36 41 34 31 26 10 10 16 21 27 23 15 11 25 30 9 8 7 10 15 23 46 74 94 96 39 10 8 7 14 45 50 36 27 27 30 39
39 42 37 33 29 10 11 18 18 24 26 15 21 33 24 9 8 9 16 20 74 100 100 99 100 66 41 18 8 6 5 5 6 8 11 14 17 20
39 38 36 30 10 11 23 22 20 22 21 32 28 11 10 13 19 22 36 38 98 100 100 100 100 100 90 46 8 5 4 4 4 4 4 4 7 11
35 32 29 12 8 24 25 25 27 30 25 10 14 28 41 52 67 70 75 80 88 94 84 75 100 100 100 100 95 12 7 17 9 8 7 8 10 16
34 27 13 7 22 25 24 27 28 13 12 49 78 91 96 100 100 98 99 94 97 98 100 100 66 99 100 84 100 38 13 8 10 15 14 16 35 77
26 12 7 17 26 24 25 19 10 36 85 100 100 100 100 100 100 95 94 92 97 97 100 100 87 47 68 89 49 36 18 15 14 15 21 46 83 99
9 7 16 24 26 25 16 11 54 94 100 99 94 99 96 86 86 95 100 99 99 100 100 100 100 82 43 42 30 30 20 20 17 27 92 100 92 99
7 16 22 24 27 15 11 60 96 97 98 100 100 100 100 100 100 99 100 100 100 100 100 100 100 89 75 48 25 22 24 28 24 29 37 89 94 46
18 20 22 26 15 11 63 100 98 99 100 100 100 100 100 100 100 100 99 100 100 100 100 100 100 100 100 100 44 28 25 24 24 54 83 44 87 78
21 21 26 18 9 67 100 100 100 100 100 100 100 100 100 100 100 100 100 100 100 100 100 100 100 100 100 95 57 71 64 82 55 83 44 25 89 97
22 26 22 9 71 100 100 100 100 100 100 100 100 100 100 100 100 100 100 100 100 100 100 100 100 100 100 100 100 88 88 100 100 94 60 73 98 100
28 22 11 78 100 100 100 100 100 100 100 100 100 100 100 100 100 100 100 100 100 100 100 100 100 100 100 100 100 100 100 100 100 100 100 100 100 84
20 15 92 100 100 100 100 100 100 100 100 100 100 100 100 100 100 100 100 100 100 100 100 100 100 100 100 100 100 100 100 100 100 100 100 100 100 100
22 100 100 100 100 100 100 100 100 100 98 94 96 98 99 100 100 100 100 100 100 100 100 100 100 100 100 100 100 100 100 100 100 100 100 100 100 100

GFSNE_500_rhum_018.txt.gz
RH
39 43 43 41 38 33 23 16 15 16 14 8 5 5 5 5 6 5 5 8 9 6 4 4 4 4 4 4 4 4 4 7 9 7 11 30 59 100
47 43 41 38 26 15 15 13 9 9 6 5 5 5 6 5 6 9 11 8 4 5 7 7 8 7 7 8 9 7 5 5 10 10 9 32 43 72
46 41 30 16 16 14 11 10 9 10 10 7 8 7 6 9 12 11 6 4 6 7 8 8 7 7 9 9 9 6 6 6 11 21 15 32 52 46
31 18 15 14 13 11 9 9 10 11 12 11 7 11 15 15 8 4 6 8 8 8 8 7 13 12 7 6 6 6 6 6 9 50 48 39 70 75
17 14 13 11 9 9 10 10 11 13 17 20 16 18 14 6 8 9 8 8 8 8 8 13 10 11 15 10 7 7 7 6 6 24 75 54 80 100
11 10 10 9 10 10 10 11 12 17 22 22 20 11 7 14 18 16 8 8 8 8 22 16 9 7 7 7 8 8 8 7 6 8 69 86 98 100
10 10 10 9 10 10 14 18 25 27 24 18 8 10 16 18 22 16 11 8 12 21 9 8 7 7 7 8 8 10 12 11 7 7 55 92 100 100
10 10 8 7 11 19 24 30 29 26 17 8 17 22 20 25 18 15 20 16 8 9 7 8 11 10 10 12 13 15 17 15 10 7 39 92 100 100
8 5 6 14 24 27 28 26 23 16 10 23 23 23 21 24 22 14 10 10 10 14 10 18 30 76 77 71 55 31 18 17 10 7 34 92 97 100
4 9 18 25 30 30 24 20 13 7 23 25 27 31 27 14 13 17 21 19 26 24 36 86 100 100 100 100 100 95 35 13 9 8 31 86 88 91
12 24 30 30 28 25 18 10 6 21 26 29 29 18 14 37 57 49 71 52 37 70 100 75 100 100 100 100 91 43 20 10 8 7 28 76 74 73
22 31 30 28 23 14 7 7 20 24 26 16 15 45 73 93 91 86 83 92 100 100 100 73 79 96 100 100 99 78 69 14 8 6 25 68 61 42
29 27 25 16 9 8 12 23 25 21 12 44 80 92 94 95 98 92 85 91 98 100 100 92 100 89 95 99 100 61 48 35 9 6 13 43 52 34
28 20 10 9 10 17 23 25 18 18 75 96 100 100 100 97 93 89 93 97 93 91 99 94 85 63 91 96 100 74 100 83 20 55 26 5 14 32
13 10 11 15 19 23 26 15 38 83 90 97 98 90 93 96 98 100 100 99 95 97 94 92 87 49 64 92 100 61 61 93 100 72 45 40 5 4
10 14 18 20 22 24 14 41 84 88 97 98 98 97 100 100 100 100 100 100 100 100 100 100 100 90 36 53 52 69 56 40 50 55 26 15 25 12
17 20 22 22 25 14 54 93 96 100 100 100 100 100 100 100 100 100 100 100 100 100 100 100 84 74 49 28 29 34 33 28 30 31 43 54 82 85
22 24 28 24 12 69 100 100 100 100 100 100 100 100 100 100 100 100 100 100 100 100 99 100 91 85 57 23 26 30 32 33 59 96 100 100 96 99
25 29 20 16 87 98 100 100 100 100 100 100 100 100 100 100 100 100 100 100 100 100 100 98 100 100 78 29 24 25 31 41 96 100 100 96 100 100
28 17 33 99 100 100 100 100 100 100 100 100 100 100 100 100 100 100 100 100 100 100 100 98 99 98 47 37 29 24 26 40 100 100 100 100 95 100
18 55 100 100 100 100 100 99 99 99 100 100 99 100 99 100 100 99 98 98 98 100 100 100 97 100 98 90 82 70 65 46 52 76 90 79 100 100
71 99 100 100 100 100 100 98 85 55 38 36 39 54 84 100 100 98 96 100 98 96 100 100 100 100 100 100 98 100 100 100 98 76 64 60 98 100
99 100 100 100 100 99 62 30 27 25 23 23 24 33 37 29 23 42 83 99 100 100 100 100 100 100 100 100 100 100 98 98 99 96 85 74 73 77

GFSNE_500_rhum_024.txt.gz
RH
48 43 45 44 34 23 15 13 12 8 9 8 7 6 6 6 5 4 4 3 3 2 2 2 2 2 4 4 4 5 4 5 4 4 4 3 3 3
48 46 35 24 17 15 14 10 8 8 8 7 7 6 6 5 4 3 2 3 4 6 9 9 12 13 12 11 10 8 8 7 7 7 7 7 7 7
40 25 19 18 16 13 9 8 8 7 7 6 6 6 4 3 2 3 5 9 13 14 16 16 12 8 8 10 9 10 9 8 10 8 6 6 5 5
24 22 19 14 10 9 7 7 7 7 8 6 5 3 3 5 7 11 15 17 17 14 8 6 15 20 20 19 12 11 14 14 12 10 7 7 7 7
20 13 10 9 8 8 8 8 8 8 6 4 4 7 10 14 14 15 12 9 5 9 22 22 17 14 14 14 14 13 13 11 10 9 8 8 8 8
11 10 8 9 9 9 9 11 8 4 6 12 15 15 13 11 8 5 4 10 20 19 11 16 17 14 13 10 9 9 10 12 14 13 12 11 10 7
10 10 10 10 10 15 13 6 6 12 12 12 9 6 7 6 6 13 19 13 18 49 44 53 34 26 18 13 11 10 10 10 13 10 8 7 7 8
10 11 12 15 18 10 6 10 14 8 7 8 8 8 8 21 22 15 17 58 72 100 100 100 79 78 36 16 31 66 68 73 88 100 100 90 15 7
13 14 17 16 7 7 10 8 7 11 14 13 16 23 21 18 42 73 78 82 92 100 87 80 91 85 43 49 76 66 70 81 98 100 95 85 79 23
16 21 14 7 8 10 6 7 12 16 19 22 23 19 46 81 79 79 83 82 89 85 43 59 84 74 72 71 76 71 78 100 100 100 100 97 76 57
22 11 7 9 7 6 10 14 18 20 22 21 30 78 92 94 94 85 91 92 99 100 74 75 87 82 85 96 69 74 96 88 94 87 42 50 81 68
12 8 10 6 8 14 18 19 18 19 28 78 100 100 100 100 98 90 89 96 100 100 98 100 99 91 100 69 79 73 89 100 100 100 100 54 19 17
8 8 6 9 16 20 24 21 22 72 94 94 100 100 100 100 100 100 100 95 100 100 99 98 100 100 78 81 64 82 100 100 100 100 100 92 12 10
8 6 9 16 19 21 18 31 96 98 100 100 100 100 100 100 100 100 100 100 92 94 100 100 100 100 66 85 78 94 100 100 100 100 94 15 8 7
7 10 16 19 19 16 62 93 95 100 99 98 100 100 100 100 100 100 100 100 98 97 100 100 100 90 64 85 75 89 98 78 100 100 80 11 9 7
8 16 20 18 23 81 91 93 96 95 97 100 100 99 100 100 100 100 100 100 100 100 100 85 97 62 67 77 81 76 88 81 88 100 64 29 62 76
15 20 19 36 94 96 92 92 96 96 99 99 100 100 100 100 100 100 100 100 100 100 100 69 38 41 48 70 75 98 93 93 93 70 59 29 77 94
18 20 53 92 92 96 99 100 98 98 92 90 90 95 99 100 100 100 100 100 100 100 100 100 40 37 40 82 100 98 100 100 100 100 84 44 54 80
19 53 90 91 94 96 99 90 42 28 24 22 19 25 43 86 96 98 100 100 100 100 100 100 78 34 34 95 98 100 100 93 100 100 100 62 28 54
43 92 93 95 95 84 43 31 38 43 40 32 23 20 18 25 48 90 97 100 100 100 100 71 65 42 31 72 100 100 99 100 100 100 100 100 73 34
92 92 93 81 47 27 31 38 40 38 35 34 35 26 29 30 26 26 63 99 100 100 100 100 87 56 35 46 98 100 99 99 100 91 99 100 100 58
92 79 38 23 25 29 33 37 38 42 41 40 43 35 31 36 32 26 16 39 97 100 100 100 100 100 55 37 88 100 99 98 100 100 100 100 100 100
50 21 21 25 31 37 38 32 30 55 58 56 56 41 39 42 44 43 33 23 19 87 100 100 100 100 100 84 69 98 98 92 85 99 100 100 100 100

GFSNE_500_rhum_027.txt.gz
RH
58 65 62 48 38 30 25 19 15 14 14 12 9 8 8 8 8 7 5 4 5 5 4 4 3 3 3 3 3 3 3 3 3 3 2 2 2 2
68 60 45 32 26 17 12 10 10 8 9 8 8 9 8 6 5 5 5 4 4 4 5 5 7 8 8 8 7 7 7 7 6 7 7 8 8 6
57 40 30 18 11 11 10 8 8 10 9 10 10 7 6 5 4 4 4 6 7 8 9 11 11 10 9 9 8 7 6 6 6 6 7 8 8 8
38 29 14 11 12 9 9 11 10 9 8 8 7 6 4 4 5 5 4 4 5 6 6 6 5 5 4 5 10 14 13 12 13 15 17 17 15 10
26 14 13 12 10 12 11 10 9 8 8 7 5 5 5 5 5 5 6 6 7 9 14 16 18 18 16 11 17 23 17 12 11 10 9 12 14 12
14 16 12 13 12 11 10 9 8 7 6 6 6 5 6 7 8 10 14 22 22 24 19 16 21 50 50 48 51 43 22 13 8 8 8 8 10 13
17 15 13 12 12 11 10 9 6 6 6 5 7 11 11 14 17 19 28 42 69 86 73 79 75 82 89 80 68 54 32 12 8 8 8 9 10 8
14 14 14 14 12 11 8 6 7 6 8 13 15 14 15 19 50 78 86 90 91 98 51 87 72 77 85 76 76 70 47 40 45 48 73 86 84 73
17 16 15 13 12 7 6 6 6 14 20 16 12 16 55 79 84 94 100 100 100 97 70 96 86 76 82 96 80 67 45 43 72 84 81 70 82 92
18 16 14 12 6 6 6 6 14 21 20 16 34 76 86 89 90 93 91 100 100 94 76 96 91 100 99 100 71 65 57 63 71 81 94 92 85 64
15 15 11 5 6 6 6 13 18 18 26 74 86 88 94 94 91 86 91 92 100 100 87 98 93 92 100 99 78 41 59 76 98 100 100 100 100 100
16 10 6 6 6 7 14 16 17 52 88 97 98 100 99 100 92 88 91 92 89 100 96 98 96 94 100 85 50 69 94 96 99 100 100 100 100 100
9 6 7 7 8 15 17 23 76 87 93 96 100 100 100 98 99 96 98 89 85 100 86 80 94 100 88 70 64 85 97 80 95 100 100 100 83 100
6 7 7 10 15 16 33 86 91 94 99 100 98 96 100 100 100 100 100 99 89 97 94 60 75 71 68 85 78 86 73 79 89 100 82 30 43 100
8 8 12 15 17 42 84 93 91 95 99 98 100 100 98 97 100 100 100 100 95 99 95 32 42 49 66 87 76 76 77 79 95 100 60 30 7 8
8 11 16 16 54 81 83 88 88 92 89 86 77 82 86 90 100 100 100 100 100 100 100 45 30 34 60 98 94 90 100 95 100 75 66 86 51 6
9 15 17 55 89 90 86 82 85 66 30 25 19 18 21 37 79 96 100 100 92 100 100 53 32 70 100 100 100 100 100 96 100 66 79 90 98 31
14 18 57 86 87 90 90 77 39 30 33 33 27 19 16 17 24 59 98 100 98 96 99 79 43 96 100 100 100 100 100 94 97 100 54 100 97 100
16 64 85 89 89 74 36 27 31 37 38 35 32 29 22 19 25 26 56 100 99 97 92 76 40 81 100 93 100 100 100 97 92 100 82 89 100 98
56 88 91 70 31 22 25 29 33 34 32 33 32 33 29 24 32 28 23 70 100 100 98 66 42 52 97 95 96 100 100 100 99 91 40 69 86 99
90 80 33 20 22 29 36 43 41 30 39 53 46 43 32 32 35 34 26 22 67 100 99 100 74 46 78 100 93 99 100 100 100 100 89 47 66 82
55 21 24 42 54 63 64 58 47 35 60 62 67 58 40 36 38 40 38 35 30 88 100 100 100 65 53 100 99 98 100 97 100 100 100 42 48 40
23 50 63 62 55 50 38 27 31 35 72 81 81 75 53 58 62 58 39 33 29 34 98 100 100 100 71 62 100 89 100 96 100 100 100 80 99 43

GFSNE_500_rhum_030.txt.gz
RH
80 68 70 71 72 62 50 39 32 27 22 16 13 14 14 14 13 11 9 7 6 5 4 3 4 4 4 4 4 4 4 4 4 3 3 3 3 3
72 76 78 72 59 46 38 26 15 14 14 13 15 15 15 12 8 6 5 3 3 3 4 4 4 4 4 4 4 4 5 6 7 9 9 8 7 5
77 80 70 59 44 34 20 15 15 16 15 17 15 10 6 6 5 3 3 4 4 5 7 6 5 5 5 4 4 4 4 4 5 6 7 9 10 10
81 72 55 41 22 18 17 18 18 17 13 8 6 5 4 3 4 4 5 8 11 15 17 17 16 16 16 17 16 14 14 11 10 10 7 8 7 6
70 51 29 20 19 20 20 18 13 8 7 6 4 3 4 4 6 9 11 15 19 30 43 51 47 41 41 40 40 43 43 41 35 40 37 20 12 9
38 23 21 22 18 12 8 6 6 6 5 4 4 5 6 10 10 17 40 66 74 69 59 67 57 60 67 62 63 68 71 78 82 83 60 22 9 8
23 24 12 8 7 7 6 6 6 4 4 4 5 9 11 22 53 66 70 75 98 66 71 98 64 78 72 66 63 71 69 55 55 64 50 28 17 8
28 10 10 10 8 7 6 5 4 5 5 6 12 13 46 61 70 80 84 94 90 87 79 100 78 93 86 91 92 93 81 64 47 42 44 40 48 59
11 11 11 11 10 8 5 5 6 6 12 12 24 54 60 70 78 87 90 95 95 78 66 95 84 98 92 100 90 95 98 75 59 44 54 86 88 83
13 13 13 12 11 5 4 6 7 14 14 39 64 66 70 75 74 77 79 93 100 89 64 91 69 90 95 87 98 100 80 43 41 60 69 88 92 92
16 13 12 13 7 4 6 7 14 20 65 75 70 71 79 82 81 79 79 82 93 100 83 92 59 87 83 100 97 62 58 72 92 82 75 70 94 100
12 14 15 8 6 7 7 13 25 71 78 85 90 91 89 92 86 76 80 86 73 95 93 77 39 50 91 76 87 75 90 64 73 74 90 100 94 94
14 15 7 7 8 8 14 28 72 77 79 84 92 98 93 90 91 90 86 88 69 91 84 53 28 37 57 94 81 73 73 73 79 79 85 87 100 85
15 7 8 9 8 14 25 72 78 83 87 91 89 75 66 58 76 88 90 96 77 83 87 47 20 31 56 84 80 79 87 98 95 100 71 64 87 84
7 8 11 9 14 24 70 72 80 84 78 70 29 23 18 14 15 28 76 97 86 84 92 35 37 62 86 92 97 89 100 100 98 56 74 100 79 11
8 11 9 14 26 70 75 77 78 67 28 21 24 21 19 16 15 15 22 89 100 90 89 37 54 61 69 82 86 97 100 100 84 67 99 88 16 7
12 10 14 31 81 82 80 55 27 21 23 24 26 29 27 26 19 18 20 29 100 97 89 44 62 54 80 92 98 100 100 100 100 85 96 91 28 8
11 13 34 83 84 61 26 22 22 27 31 32 28 28 31 30 26 23 23 23 94 97 94 53 54 78 83 94 100 100 100 100 81 86 89 96 89 89
11 31 85 73 24 19 26 38 47 54 52 44 36 41 44 38 26 26 31 25 69 100 100 69 35 68 96 95 97 98 100 100 42 92 96 94 95 93
30 83 49 22 39 54 59 60 62 58 49 36 49 56 56 37 34 36 36 35 34 100 100 100 39 42 91 90 100 100 98 100 46 81 95 100 96 92
78 31 39 55 47 36 30 28 26 25 28 47 73 72 68 48 56 52 39 32 32 74 100 100 83 32 64 78 100 100 100 100 75 62 98 100 96 100
31 50 37 26 25 25 24 26 26 26 39 75 74 70 68 58 67 66 55 38 31 31 99 100 98 44 45 82 94 100 100 100 70 77 73 85 88 99
39 25 29 27 21 18 18 24 28 42 74 75 64 55 54 63 73 70 64 54 47 29 69 100 100 88 34 82 93 100 100 100 92 94 64 54 34 31

GFSNE_500_rhum_033.txt.gz
RH
71 77 79 69 64 62 63 61 56 45 44 34 22 17 19 23 20 17 14 13 12 10 6 4 3 2 3 3 3 3 3 3 3 3 3 3 3 2
80 74 64 65 67 69 66 58 39 29 28 17 14 15 16 15 12 10 7 4 3 3 3 3 3 4 4 4 6 7 8 7 6 4 4 4 4 4
65 69 68 68 72 65 49 27 24 17 12 12 15 15 11 7 5 4 3 3 4 6 7 7 8 12 19 35 40 37 23 16 13 14 10 5 5 5
69 69 73 72 58 36 25 25 14 11 11 11 8 6 4 4 3 3 4 9 10 21 40 42 39 48 50 54 56 51 51 58 57 35 16 16 12 6
68 75 69 51 29 27 24 16 12 8 7 5 5 4 3 3 4 9 12 38 55 51 48 52 63 62 63 60 56 55 50 52 55 63 74 67 47 22
76 64 40 27 30 25 17 11 8 7 6 6 4 3 4 6 12 33 48 61 64 76 76 77 72 69 62 52 58 64 70 75 62 63 59 71 93 91
53 33 30 32 22 17 8 8 7 7 6 4 4 5 8 25 53 58 62 72 88 62 73 88 72 78 74 76 76 75 79 87 94 92 90 66 65 89
32 34 33 24 11 8 10 9 7 6 4 5 6 10 42 52 58 69 70 75 85 77 62 100 75 86 62 47 46 82 94 93 89 91 90 63 37 47
39 28 14 11 9 10 8 7 6 6 7 8 12 51 52 56 65 76 82 81 81 77 61 97 69 63 20 30 71 88 98 100 97 79 47 43 41 32
24 16 13 10 11 9 7 5 6 8 10 15 58 62 62 65 65 68 74 82 87 81 61 83 57 30 17 33 64 77 60 55 64 65 72 78 76 72
16 12 12 11 10 6 4 6 8 11 20 66 67 64 66 70 62 68 74 76 82 89 76 83 61 25 17 33 58 70 71 79 81 74 79 79 81 85
13 14 13 10 5 5 7 8 10 19 70 78 81 79 73 68 56 53 46 52 72 93 85 98 34 20 40 34 57 53 58 64 75 88 87 100 90 87
15 14 9 5 6 8 9 10 20 69 77 80 86 76 60 40 20 18 16 17 19 80 79 86 27 31 40 68 77 91 97 93 96 100 99 73 62 77
17 9 5 6 8 10 10 23 77 79 80 80 65 30 23 24 22 18 13 12 12 31 92 88 24 44 60 68 76 99 93 94 100 100 78 93 100 92
8 5 6 8 11 11 27 78 82 70 38 24 21 23 25 25 24 23 20 16 12 16 87 91 27 40 56 82 95 86 70 100 100 98 99 100 81 37
5 6 7 10 11 39 80 60 24 18 23 32 38 44 41 35 32 25 27 20 23 23 76 100 40 48 67 77 92 90 96 96 99 92 100 86 92 40
6 7 10 15 63 74 31 24 36 49 54 58 58 52 41 36 36 32 26 22 23 29 100 99 54 44 76 100 100 93 100 94 65 100 99 96 85 69
7 10 34 64 39 32 49 57 52 53 53 54 46 38 43 51 47 34 28 23 29 29 96 100 76 34 82 81 97 100 100 85 95 100 96 100 98 91
14 53 44 35 46 37 32 30 30 27 26 24 27 51 66 66 48 37 43 37 33 30 83 100 91 33 75 100 94 98 100 87 95 100 93 100 91 100
47 36 38 30 28 27 22 18 19 24 27 32 69 86 80 74 57 62 55 44 33 31 62 100 100 40 60 100 100 100 100 69 92 99 90 100 96 89
34 29 30 30 23 19 18 19 28 36 56 81 84 72 60 58 62 72 67 49 42 30 56 100 100 57 40 91 100 96 100 79 83 100 90 91 91 97
29 34 31 28 24 23 24 30 39 52 63 60 50 48 49 53 56 62 65 56 47 40 49 99 99 67 43 90 100 100 100 79 67 92 98 100 86 85
34 34 34 34 34 33 33 35 36 39 42 44 46 46 48 51 54 66 59 41 38 43 41 97 100 86 48 94 100 100 100 100 74 53 53 56 51 71

GFSNE_500_rhum_036.txt.gz
RH
33 35 58 69 68 56 49 50 54 45 47 46 34 30 25 15 14 12 15 16 12 8 4 3 3 2 2 3 3 3 3 3 3 3 2 2 2 2
52 72 73 64 54 55 62 60 55 49 41 32 31 21 13 10 9 12 11 7 5 4 2 2 3 4 10 21 28 32 34 31 23 17 12 9 6 5
79 75 62 63 66 65 60 56 44 33 36 31 19 11 9 9 8 7 5 4 3 3 5 10 24 28 33 38 40 38 42 45 45 42 35 27 18 15
78 64 70 67 66 59 54 37 36 36 26 22 14 10 10 9 7 5 3 4 6 18 39 40 34 50 60 58 54 54 58 63 62 59 54 48 43 39
70 71 68 65 58 47 39 40 31 17 13 12 11 10 9 8 4 4 5 12 41 46 47 43 64 66 59 56 51 54 57 61 66 65 64 65 60 53
68 69 63 56 45 44 40 24 15 14 12 12 13 13 8 3 5 6 22 53 50 54 66 67 60 61 61 52 60 51 34 19 18 24 61 72 71 70
69 62 52 47 48 32 18 16 14 13 15 14 10 5 4 6 11 44 54 55 80 67 68 80 68 72 63 70 59 27 14 13 19 45 67 82 90 89
61 53 52 47 26 19 17 15 17 15 10 7 4 5 6 14 56 63 62 63 79 88 56 91 71 77 71 63 29 16 16 35 68 79 84 88 96 100
56 56 42 27 21 18 18 13 10 8 5 5 7 7 13 58 58 68 77 74 80 79 53 94 71 78 67 40 18 17 25 47 53 52 53 55 49 43
54 37 27 24 20 15 9 10 8 5 6 8 8 15 52 61 66 66 65 54 48 52 50 80 69 83 65 20 24 25 40 48 57 62 67 72 79 81
31 27 20 15 14 13 11 7 5 7 10 11 20 59 65 66 60 52 44 36 22 16 24 41 66 87 46 26 33 49 57 61 72 84 95 99 99 100
24 19 17 15 13 10 5 5 6 10 13 42 81 74 74 62 42 25 16 15 17 16 13 14 65 80 39 38 47 57 79 78 91 96 80 73 89 76
19 16 12 11 9 5 5 7 10 20 68 82 86 62 23 17 17 21 23 24 23 17 13 12 69 94 33 73 83 73 92 97 100 97 90 87 80 79
16 14 12 7 5 5 8 18 54 73 65 38 22 21 27 35 42 46 41 39 33 21 18 14 51 92 38 50 70 97 100 100 99 94 96 97 100 93
16 13 5 5 6 17 48 55 41 29 31 40 48 51 55 58 53 43 36 28 30 23 17 16 43 100 43 47 76 95 82 93 88 88 100 100 100 91
10 4 5 8 35 44 33 30 33 34 32 34 42 47 46 42 30 30 43 41 33 30 20 16 33 100 71 55 72 84 89 72 90 99 100 96 87 81
4 5 15 42 35 30 28 26 25 23 19 18 21 26 28 29 45 52 49 36 30 28 38 30 31 96 72 61 100 90 82 95 100 100 95 83 88 96
5 28 38 26 27 28 27 21 18 17 18 21 26 29 44 75 78 74 53 50 42 32 31 34 51 98 60 52 76 96 95 100 99 100 97 91 94 99
35 28 25 28 30 26 23 22 25 28 34 47 64 78 90 85 82 77 66 70 62 45 30 32 75 100 77 56 86 90 100 88 99 100 100 98 96 98
22 26 28 29 30 31 30 28 30 33 38 46 55 55 55 56 56 59 67 66 61 50 47 32 98 100 72 57 100 100 100 91 96 100 100 100 100 98
28 27 26 28 32 36 42 45 50 57 61 64 62 54 47 48 51 50 50 58 50 42 43 53 100 100 48 66 100 100 84 77 93 100 100 98 100 100
26 22 23 25 27 34 44 52 57 64 72 75 78 79 80 78 75 70 63 60 42 39 41 86 100 92 45 92 100 100 83 55 67 80 78 92 100 100
22 23 22 22 25 31 40 50 62 74 86 93 98 98 95 98 92 81 70 57 47 41 41 93 100 80 70 100 100 100 100 55 45 45 52 65 74 68

GFSNE_500_rhum_039.txt.gz
RH
48 46 43 37 38 58 66 64 58 48 44 56 48 41 39 38 34 22 14 9 7 6 5 5 4 4 4 3 3 3 5 7 7 6 4 3 3 2
52 44 36 48 70 72 67 60 52 56 47 44 41 42 38 29 17 11 8 7 7 6 6 4 3 3 3 6 21 34 35 31 33 36 33 27 22 15
44 38 63 77 76 68 58 61 60 51 42 44 45 38 30 22 16 13 10 8 7 5 4 3 4 5 19 31 32 45 51 56 55 56 56 56 55 50
48 77 83 76 67 61 66 58 51 49 49 41 30 18 14 12 10 8 7 6 4 4 6 8 24 36 32 45 50 55 55 59 59 55 52 46 44 44
88 87 78 66 66 65 56 52 54 50 33 21 16 13 11 10 8 7 5 4 5 7 30 52 38 42 53 58 58 57 58 57 56 50 31 20 19 24
88 76 68 70 64 59 57 56 41 27 22 16 13 10 7 8 8 4 4 6 10 53 58 57 43 60 68 61 61 59 62 53 29 18 20 20 15 15
73 71 70 63 60 61 47 33 26 19 15 11 8 8 7 5 4 5 6 13 65 73 54 79 63 76 71 62 61 68 66 35 19 21 14 15 28 64
75 68 65 63 57 38 28 22 17 13 10 10 11 6 4 4 6 7 15 60 69 93 70 73 73 85 74 71 68 73 62 20 20 17 26 31 38 49
69 67 63 44 32 25 19 14 10 8 9 8 4 4 5 8 10 32 69 69 74 68 61 53 43 36 46 57 74 78 27 23 35 48 54 64 75 82
67 50 37 28 21 14 8 7 7 8 5 4 5 7 15 36 53 59 67 63 47 36 31 36 23 19 15 22 57 68 28 35 45 46 56 72 84 92
42 33 22 13 9 7 7 8 8 4 4 11 24 46 56 58 48 33 19 16 17 26 19 16 18 15 13 14 42 60 37 41 46 64 67 75 80 80
29 18 11 10 8 8 7 5 3 7 33 46 49 35 25 24 22 25 32 40 44 45 42 39 35 24 17 19 47 61 46 55 59 72 79 86 91 78
19 11 8 8 8 7 4 4 18 39 35 26 27 28 32 34 36 37 38 36 35 32 28 22 24 22 15 24 89 72 37 64 80 93 99 100 95 77
11 9 9 10 6 4 7 31 34 24 24 24 24 24 24 26 27 31 39 37 32 22 22 21 21 20 18 26 100 80 48 87 86 91 98 94 93 100
10 10 8 5 4 18 32 22 23 25 24 21 19 17 16 16 20 26 41 36 48 39 30 26 22 20 20 38 100 78 71 100 100 93 93 86 84 90
9 7 5 5 28 25 22 24 26 26 24 23 22 21 23 23 25 27 47 68 64 60 49 31 24 22 26 80 94 63 80 77 80 82 84 95 89 93
6 4 8 30 23 26 26 22 25 30 30 28 26 27 35 43 67 72 78 76 64 56 68 60 38 27 32 99 86 53 75 86 75 74 87 100 99 95
4 11 29 24 24 20 20 27 33 41 44 47 46 39 42 44 50 57 55 59 63 70 61 52 45 34 81 89 42 89 83 74 83 88 96 98 100 100
14 28 26 20 16 16 19 25 36 49 57 66 76 80 80 67 49 49 52 57 58 54 56 43 39 62 100 99 38 65 87 91 97 96 100 88 96 100
28 28 18 14 13 16 19 24 32 46 61 71 80 87 87 86 84 80 54 46 45 53 48 40 45 100 100 64 69 83 85 89 90 99 84 82 92 100
28 19 14 13 17 21 27 34 42 48 67 83 90 95 95 90 96 95 86 77 64 57 40 43 89 100 67 57 99 100 90 68 77 74 82 88 92 99
21 16 14 18 22 28 35 45 57 61 77 100 100 100 100 99 92 92 86 82 69 53 45 53 100 90 65 99 100 100 84 60 63 59 67 62 76 100
19 14 16 22 27 33 41 57 75 70 82 100 100 100 100 99 92 95 68 44 48 45 40 93 100 69 97 100 100 100 88 51 44 34 41 47 52 90

GFSNE_500_rhum_042.txt.gz
RH
47 47 64 60 58 57 42 46 49 52 58 56 49 54 51 46 44 42 36 25 17 10 8 7 6 5 4 4 4 4 2 2 3 3 3 3 4 5
49 66 63 64 57 43 55 68 71 58 34 47 52 47 45 44 38 28 20 12 8 6 6 5 5 5 5 3 2 3 5 12 27 35 36 31 29 30
64 65 74 51 50 71 78 74 54 57 56 50 47 44 37 27 20 14 8 6 5 4 4 5 5 3 3 4 5 17 34 39 44 58 67 63 56 50
75 82 47 68 80 83 63 61 69 58 50 44 40 29 23 15 8 6 5 4 4 4 4 3 4 5 6 21 39 37 40 61 69 67 62 55 57 55
72 58 82 87 79 61 71 66 55 52 41 29 18 9 6 6 5 5 5 4 3 3 4 6 7 19 52 49 41 44 62 68 68 66 65 67 59 44
84 91 94 70 69 72 60 55 46 32 12 6 6 6 6 6 5 4 3 3 4 6 8 15 42 61 65 62 54 63 69 69 65 63 64 39 21 22
100 86 70 75 67 58 52 41 29 10 7 7 6 6 5 4 4 3 5 8 13 25 32 75 61 70 72 67 64 67 72 71 63 62 57 23 20 24
73 78 75 64 58 49 38 27 15 10 8 7 6 5 4 3 4 15 28 29 54 80 53 76 56 63 55 56 55 48 39 47 60 62 40 23 26 35
79 67 63 57 43 31 18 13 9 8 7 6 5 4 4 13 26 30 33 29 30 40 32 31 20 22 28 29 39 37 24 20 28 62 32 26 36 47
64 62 51 37 23 16 11 7 5 6 7 6 4 11 28 29 20 15 15 17 27 28 29 19 34 37 35 31 21 19 18 15 16 54 31 32 44 62
56 44 31 21 16 9 8 6 7 8 5 9 26 28 19 18 17 15 16 16 18 36 37 16 28 29 34 41 31 24 22 17 20 62 35 41 51 64
35 25 19 12 10 10 8 6 7 5 18 28 22 22 22 22 21 20 19 18 16 22 38 26 33 24 22 36 28 16 16 17 36 69 43 51 59 57
20 13 10 8 8 8 7 5 8 24 21 21 22 24 25 24 23 22 20 17 16 18 26 28 34 29 23 24 39 21 15 16 47 73 45 57 64 66
13 12 9 7 8 7 5 17 24 21 17 18 23 29 31 29 26 25 27 28 29 24 39 49 43 33 27 23 24 32 18 17 70 52 56 74 90 84
10 8 7 8 5 6 25 22 15 13 14 18 28 40 45 44 36 30 46 55 87 74 70 64 44 38 32 24 22 32 44 88 76 56 76 97 92 92
7 10 10 4 10 25 19 12 14 18 20 23 30 48 58 61 64 48 39 46 69 91 77 57 58 52 34 28 28 72 98 100 71 86 93 100 98 85
12 12 4 16 24 16 14 17 22 26 32 36 43 61 78 80 84 75 64 46 46 54 66 65 57 49 37 29 84 96 86 72 81 94 82 92 98 76
11 4 18 24 14 15 20 29 35 42 52 55 61 82 98 100 100 100 89 73 49 52 50 43 48 41 47 74 74 64 64 84 86 85 77 72 87 75
5 16 25 15 15 19 30 40 52 64 68 68 75 90 97 100 100 100 92 82 83 68 50 46 40 40 92 100 66 62 98 93 85 79 64 69 70 86
13 27 17 14 19 27 39 53 64 72 76 74 84 92 96 96 96 100 98 82 80 78 69 49 39 87 99 97 66 77 63 72 73 75 79 73 75 80
29 21 13 18 26 37 49 60 70 79 85 78 86 97 100 100 98 95 86 83 61 59 55 42 69 100 74 61 95 98 89 60 66 70 62 50 58 76
26 16 14 22 34 40 50 64 80 88 97 82 76 74 90 95 90 87 71 56 39 46 43 60 100 83 90 99 100 100 100 70 61 58 39 41 56 69
21 16 15 22 28 34 51 66 84 89 97 85 64 63 80 96 95 76 51 30 34 36 58 100 86 91 100 98 100 100 100 57 43 43 34 35 47 91

GFSNE_500_rhum_045.txt.gz
RH
98 96 96 93 76 54 55 63 63 54 52 80 72 62 54 58 52 44 39 34 26 20 14 12 9 8 8 8 8 8 6 6 5 4 4 3 3 2
95 86 94 96 83 71 76 70 57 62 56 62 50 57 55 47 40 26 12 10 7 8 9 9 9 10 9 7 5 3 2 2 2 3 4 4 4 6
86 93 99 95 90 93 70 71 81 79 56 49 56 49 43 38 26 14 13 10 9 9 9 8 5 3 2 2 2 2 4 5 6 11 30 42 40 34
98 100 97 92 93 82 89 94 77 61 67 54 46 43 34 23 14 10 9 8 7 6 5 4 3 3 4 4 4 5 12 40 52 56 55 53 49 56
99 96 96 96 95 96 93 65 71 66 54 47 37 22 13 9 7 7 6 6 5 4 4 4 8 14 24 26 38 46 50 57 66 62 73 70 68 68
100 97 98 98 97 76 73 73 59 55 44 28 17 12 7 6 6 6 4 4 4 5 10 25 24 27 34 38 45 44 52 67 72 78 78 73 67 69
99 97 98 88 72 76 63 54 50 34 22 13 7 5 5 4 4 4 4 5 20 26 28 25 19 22 28 40 47 44 37 49 55 58 57 70 68 64
100 96 73 78 71 58 54 42 27 13 8 6 5 5 5 5 4 4 13 21 22 22 16 15 19 18 20 20 19 19 26 35 40 44 36 29 37 57
74 78 78 62 56 48 35 19 13 11 9 6 5 5 4 4 11 20 17 14 17 20 16 12 21 21 28 31 30 25 20 20 22 25 33 31 22 29
78 64 58 52 39 24 16 13 10 7 6 5 4 4 12 20 16 13 13 12 17 21 19 11 16 19 28 38 30 20 15 12 20 26 24 21 20 19
59 56 44 28 19 12 9 7 6 6 6 4 10 19 14 12 11 9 14 20 25 26 24 17 18 17 21 45 41 29 21 17 16 17 23 24 19 21
47 31 23 15 12 8 7 6 6 5 6 19 14 12 13 15 16 17 21 34 37 31 29 24 21 19 23 53 61 35 24 20 17 16 17 17 19 40
27 22 15 10 8 7 6 6 5 10 16 11 15 18 22 23 26 34 44 50 48 37 32 28 42 46 44 45 76 56 36 25 19 18 17 18 28 68
14 12 11 9 7 7 6 5 15 12 14 18 23 28 35 38 47 58 70 71 75 56 37 36 43 63 59 52 43 62 37 22 18 17 17 45 80 58
12 11 9 8 8 7 6 18 12 16 22 28 37 47 54 62 71 77 95 91 95 87 51 38 40 54 57 47 31 44 31 32 19 18 70 76 64 64
9 8 9 9 6 7 20 14 18 25 30 38 49 59 68 74 91 97 95 96 97 100 85 47 51 48 44 41 31 37 42 48 56 71 70 71 85 69
9 9 8 5 8 21 15 18 24 33 43 52 63 70 72 79 100 100 100 93 84 80 94 68 50 44 45 34 51 94 98 93 84 77 75 84 94 70
10 6 5 9 24 16 23 28 33 47 53 63 65 65 59 70 90 100 100 89 85 75 67 58 55 56 47 59 70 87 87 65 78 91 85 92 100 89
4 4 10 27 15 23 28 36 46 55 59 64 61 49 57 84 97 97 88 88 77 62 57 47 47 43 81 100 76 53 76 97 100 85 74 74 76 83
5 10 29 15 21 31 36 41 54 58 56 58 54 42 56 83 92 86 74 60 50 45 46 44 50 94 98 88 71 90 78 81 68 69 75 66 51 48
13 32 17 16 26 30 37 41 58 55 52 47 42 37 38 43 52 53 40 29 31 35 40 68 95 81 90 99 100 100 80 49 57 63 63 52 37 40
35 22 15 18 22 29 37 44 62 51 46 44 44 36 32 30 29 29 31 33 40 61 91 89 91 97 96 99 100 100 98 66 46 50 43 34 36 35
25 20 16 17 20 27 34 46 62 47 41 40 58 82 90 98 98 98 99 98 97 93 93 95 94 94 100 100 100 100 89 55 35 38 34 28 31 68

GFSNE_500_rhum_051.txt.gz
RH
52 36 44 94 63 67 73 80 83 73 70 94 91 90 89 93 96 90 85 72 55 48 46 40 38 36 31 25 19 15 12 11 9 5 4 4 4 3
35 40 63 94 65 59 73 66 67 69 77 85 86 88 89 92 92 80 64 58 53 45 42 37 28 18 13 12 11 9 8 6 6 4 3 3 2 2
35 45 71 66 85 99 99 92 72 82 94 89 71 77 81 82 68 60 60 51 47 38 24 16 13 12 12 11 8 5 4 3 3 3 2 2 3 3
40 89 93 100 66 77 100 93 99 98 82 77 87 94 74 66 66 61 55 41 24 16 14 13 12 10 8 6 4 3 3 3 4 6 8 12 13 16
78 98 92 62 99 94 100 100 94 83 94 93 83 74 72 67 62 46 27 19 15 12 12 11 9 8 6 4 3 5 7 9 10 11 14 17 21 21
64 55 53 98 100 99 94 82 90 97 92 80 83 76 63 45 27 18 14 12 8 8 8 7 5 4 6 7 8 8 7 6 6 6 8 10 11 12
78 52 63 87 99 97 98 98 94 80 86 82 62 50 24 16 14 13 12 10 9 6 5 6 7 10 10 9 10 9 8 7 6 6 6 10 14 14
100 100 100 98 96 97 85 74 82 77 63 56 31 21 17 15 18 16 11 9 5 9 11 13 15 15 17 17 17 15 12 10 10 9 9 11 14 17
100 96 93 98 94 71 79 76 64 51 34 28 24 21 20 17 14 12 7 6 11 15 16 19 22 22 26 26 30 30 28 29 31 28 24 21 19 18
98 98 85 73 75 70 63 55 39 34 32 30 26 20 17 16 9 6 12 14 15 20 27 22 21 23 28 38 55 52 51 50 41 33 28 24 21 20
79 69 71 68 62 56 47 38 36 37 32 23 20 19 10 6 12 14 16 19 21 23 29 22 27 28 32 46 81 94 79 57 40 33 30 28 28 31
62 57 52 49 44 34 33 34 30 25 24 21 11 5 10 17 19 22 23 22 16 15 32 28 36 45 41 66 100 100 95 52 34 40 46 45 46 46
50 45 37 34 33 30 26 24 21 15 8 5 6 19 22 27 29 24 19 18 21 25 46 52 60 72 71 66 91 100 79 63 57 62 56 50 41 36
34 31 28 26 25 22 15 10 8 5 4 14 20 26 30 27 20 22 21 20 21 30 57 61 56 68 72 77 67 78 67 64 60 56 54 44 35 27
23 21 19 16 13 10 7 4 3 7 21 24 32 32 23 22 33 22 20 18 21 27 36 42 51 62 67 63 48 55 52 48 52 50 42 35 39 40
9 7 6 4 4 4 3 4 16 22 32 35 34 25 28 47 43 34 28 21 21 28 28 30 38 45 50 50 42 46 64 97 86 67 87 100 100 80
5 4 5 4 3 3 9 21 29 33 34 31 29 26 52 60 63 60 55 48 46 42 34 34 42 52 63 71 74 85 95 93 90 97 87 92 82 79
5 5 3 3 6 20 22 30 33 34 34 36 28 32 60 66 74 77 72 66 67 71 80 88 96 98 97 85 65 84 95 90 78 81 74 85 100 78
5 4 6 16 18 25 28 31 31 37 37 38 31 30 64 76 80 76 68 72 83 80 78 87 100 100 100 100 92 59 67 100 100 100 81 66 80 82
8 14 16 13 22 24 26 28 29 38 39 42 40 26 54 77 83 79 71 70 81 94 100 98 96 99 100 100 100 100 80 78 91 100 100 82 60 61
14 15 13 14 19 20 21 24 27 39 46 46 47 30 30 69 84 78 83 77 76 81 99 100 99 97 100 100 100 100 99 60 38 48 63 67 63 60
16 17 15 14 16 17 20 23 26 38 44 46 52 45 29 38 75 87 90 84 90 100 100 99 95 96 100 100 100 100 100 94 51 41 39 37 40 51
20 22 22 32 37 39 33 26 29 40 46 47 52 56 47 31 41 70 91 95 96 100 97 100 100 99 100 98 84 83 81 83 94 99 97 99 97 95

GFSNE_500_rhum_054.txt.gz
RH
84 80 95 94 98 98 57 50 77 81 80 86 98 99 90 84 88 82 70 62 61 60 68 65 57 53 54 54 49 40 33 24 18 15 14 13 13 12
78 86 96 95 96 82 91 59 98 98 81 78 90 97 98 98 96 86 80 76 82 76 71 66 62 60 50 40 26 19 16 16 15 14 11 9 8 7
97 97 94 95 96 47 51 99 98 97 98 92 100 100 100 97 99 88 88 82 81 80 70 59 47 34 23 18 17 18 18 16 12 9 7 6 5 4
94 95 94 90 51 82 80 100 96 74 96 93 100 100 95 100 97 83 83 87 72 59 48 27 19 17 20 19 14 10 9 8 6 5 4 3 3 3
97 97 68 49 77 90 86 65 65 63 72 95 100 100 93 82 81 87 73 65 52 26 20 20 21 20 15 10 10 8 5 4 4 4 5 6 7 7
88 57 60 79 88 99 98 98 100 100 100 96 91 80 84 88 77 68 56 32 26 25 25 23 17 15 10 7 6 5 6 8 10 10 9 9 8 8
62 61 78 100 99 99 98 96 100 100 100 90 88 92 71 60 46 36 34 34 31 23 20 17 9 6 7 9 14 17 15 14 13 14 12 11 9 8
100 100 98 98 100 99 99 100 100 88 91 87 66 58 49 40 38 38 28 23 19 11 6 6 11 14 18 18 22 27 27 24 21 17 14 13 14 15
98 99 89 98 99 100 99 84 73 66 57 52 45 41 40 34 25 21 16 9 5 5 8 12 15 17 21 20 22 24 27 31 27 23 22 25 31 37
100 95 94 91 79 67 62 54 49 46 42 40 35 29 24 22 16 10 6 4 9 13 17 12 15 14 15 20 32 48 64 56 45 38 35 44 54 50
86 59 60 63 54 47 35 29 26 25 23 23 23 22 16 9 5 4 10 13 12 18 18 11 13 12 26 50 79 100 100 89 71 55 48 53 50 60
59 54 43 33 25 22 17 13 10 7 6 7 8 6 4 6 14 16 14 13 21 17 16 14 13 13 26 63 94 99 95 84 61 57 49 40 48 56
36 28 23 19 16 12 8 4 4 5 5 5 4 7 19 25 23 17 21 38 28 30 31 26 21 24 34 44 72 83 83 78 68 56 51 45 44 44
20 17 12 9 6 4 4 5 5 3 3 6 20 27 30 27 20 32 47 52 42 35 40 47 51 45 38 38 51 75 68 63 57 59 61 60 52 47
12 11 10 7 4 4 6 4 2 8 23 29 31 32 31 25 31 56 56 59 55 45 46 50 50 59 63 74 83 85 68 57 48 53 70 93 100 98
12 9 5 4 6 6 3 8 20 26 29 31 32 33 29 26 47 56 64 61 57 61 60 62 64 70 68 56 64 89 83 100 100 91 99 98 96 100
9 6 5 7 7 7 13 16 21 24 26 29 30 36 29 26 52 64 67 59 51 63 76 83 84 96 90 72 63 60 83 100 91 93 87 100 95 85
7 5 8 10 12 12 16 22 23 21 21 28 33 38 37 26 43 72 80 76 66 61 67 77 83 98 100 99 83 83 82 88 100 98 85 97 100 67
6 7 11 12 14 13 20 22 22 20 21 26 38 42 44 34 30 55 79 85 86 77 78 82 85 82 91 100 97 65 66 89 100 100 82 62 68 66
7 11 13 14 16 14 15 16 17 19 22 27 37 40 47 50 37 32 56 76 82 97 100 90 90 90 85 88 100 100 75 76 92 100 99 94 80 61
9 16 16 19 20 23 29 31 34 27 26 31 40 40 44 52 56 40 33 48 71 85 96 100 98 92 88 92 100 100 88 59 43 50 78 84 91 93
18 20 23 24 24 28 39 44 43 30 31 33 38 39 42 48 56 57 40 29 42 80 100 100 91 90 90 88 92 99 100 100 96 90 83 84 93 100
25 25 28 28 30 33 47 49 50 42 41 42 40 40 44 50 52 54 54 39 28 62 92 97 91 92 87 86 76 91 100 100 100 100 100 100 97 85

GFSNE_500_rhum_057.txt.gz
RH
80 90 96 88 96 99 98 93 96 94 100 92 82 96 75 93 97 76 89 91 75 65 73 67 62 54 54 59 58 58 57 55 52 49 45 42 37 34
79 89 98 91 100 94 92 94 92 98 92 96 72 86 98 97 99 96 85 87 91 89 81 68 64 63 68 65 62 61 59 54 46 39 34 29 26 23
77 97 97 97 94 98 91 95 90 90 91 74 85 100 97 91 90 70 75 94 95 94 83 78 72 66 64 60 53 49 43 33 26 24 23 22 21 18
59 100 93 89 97 91 86 91 87 99 69 94 99 97 100 100 98 96 97 99 96 90 84 70 61 57 42 36 33 31 30 27 23 22 19 17 15 14
87 90 93 93 93 93 92 86 98 70 97 100 99 99 99 100 99 98 96 95 82 69 64 54 43 38 37 32 25 19 14 10 8 6 6 5 5 5
92 91 79 97 100 98 100 81 90 95 99 99 99 100 100 100 90 75 63 59 52 45 42 40 34 26 23 18 12 8 6 5 5 6 9 10 12 12
85 96 100 99 96 88 85 94 98 98 99 99 100 79 66 54 46 44 39 36 37 36 30 28 24 20 13 6 5 6 9 10 12 14 16 18 20 20
100 99 92 82 93 95 99 100 100 98 95 74 56 43 35 26 20 16 14 16 21 23 22 14 7 5 9 14 14 14 12 10 9 10 13 15 17 18
87 81 91 97 99 99 97 78 61 50 38 25 18 16 14 11 8 7 7 7 7 6 5 5 10 17 18 17 17 15 11 9 14 26 40 49 50 46
94 98 99 98 85 57 39 27 21 17 13 9 7 6 5 4 5 6 6 5 5 13 14 10 30 26 27 27 26 26 23 16 20 38 52 62 66 70
100 94 63 47 30 22 17 13 11 9 6 4 4 4 6 5 4 4 6 13 15 18 14 32 41 36 41 38 36 36 37 40 27 34 48 58 66 71
61 43 28 21 15 14 13 9 4 3 3 4 6 5 3 7 17 19 16 14 14 35 40 40 45 38 45 51 55 49 48 56 55 46 40 42 45 48
31 24 21 16 15 10 8 4 3 3 5 4 4 13 16 16 18 18 16 24 42 46 40 34 47 48 41 42 79 71 69 78 66 69 72 75 76 78
25 23 18 15 12 8 4 4 5 7 6 12 16 18 21 23 25 22 28 48 47 45 41 40 51 46 42 56 76 85 80 80 70 83 86 89 85 84
26 16 16 14 5 5 5 6 9 10 11 15 18 21 23 28 32 25 36 59 58 50 36 40 50 57 55 59 66 77 76 99 83 94 98 92 85 94
19 16 16 8 6 5 9 10 12 11 13 15 17 20 28 32 36 28 34 62 77 75 42 42 57 65 67 74 77 63 79 86 99 99 100 96 86 73
17 19 16 13 7 8 11 13 14 13 17 20 19 21 28 34 38 38 29 40 64 76 81 72 66 71 74 84 87 78 77 90 84 83 94 100 78 71
20 21 16 10 8 12 14 15 15 15 17 17 18 21 28 36 39 46 43 32 39 60 65 66 68 77 88 100 81 81 94 99 99 84 73 94 82 66
26 26 15 9 11 16 16 19 21 26 29 36 28 25 29 35 35 39 48 45 32 33 55 62 69 74 76 94 94 65 76 78 85 73 70 62 66 69
28 14 11 8 17 19 22 22 24 36 41 42 30 29 30 35 37 36 38 44 44 29 32 62 76 84 81 85 91 90 62 63 81 99 100 97 98 92
22 12 7 11 24 27 28 26 28 44 48 48 42 38 38 37 38 36 36 39 41 32 28 46 84 88 84 84 78 83 69 80 89 88 94 100 100 100
14 9 8 23 31 36 35 32 34 55 59 58 57 54 49 46 44 42 38 38 42 42 32 31 86 92 88 81 82 94 100 100 98 97 96 100 98 100
10 7 10 36 37 42 41 37 54 62 64 67 69 67 63 61 54 50 48 38 40 41 33 33 79 98 93 87 90 99 100 100 100 100 100 96 100 92

GFSNE_500_rhum_060.txt.gz
RH
75 81 98 99 99 100 77 83 86 96 83 75 75 87 84 96 98 97 90 94 92 95 97 97 90 75 61 67 69 66 64 56 50 45 42 38 38 38
57 81 65 95 98 98 86 90 98 100 94 84 99 97 96 94 98 99 81 83 100 96 86 81 79 78 78 69 68 69 63 60 55 52 48 46 44 44
36 48 54 49 98 78 97 75 97 98 85 97 91 99 99 98 100 91 90 97 99 100 98 88 81 87 95 88 76 68 63 60 56 48 43 37 34 31
26 24 28 26 23 27 36 100 98 79 100 100 99 99 98 97 92 76 99 98 99 98 96 98 92 67 55 46 42 39 36 32 30 29 28 26 23 22
29 26 25 21 19 44 67 74 83 95 98 98 98 97 93 98 98 93 98 100 100 94 82 60 36 27 20 18 18 20 19 20 24 26 25 22 18 14
40 30 20 40 94 100 98 99 98 99 98 95 93 98 100 100 98 87 69 49 30 21 16 14 13 12 13 12 13 14 13 10 8 6 6 6 7 7
43 32 100 94 96 91 100 100 100 98 97 100 100 92 66 52 40 24 16 13 9 7 6 7 7 8 7 6 6 5 5 5 8 12 18 19 16 13
72 94 94 86 100 99 96 90 100 100 97 69 34 20 16 11 5 3 3 3 4 5 5 6 6 5 5 5 7 9 11 20 23 24 32 28 17 11
100 99 98 100 99 95 99 99 91 51 28 17 11 6 4 3 3 3 3 4 5 5 5 4 6 12 16 16 17 27 28 29 28 29 40 41 27 21
71 98 100 99 100 97 74 28 20 16 13 11 5 4 4 3 4 4 5 4 7 11 10 11 17 15 25 47 40 33 34 28 27 30 40 48 44 29
100 100 99 96 70 30 22 19 17 11 6 4 4 3 4 5 5 6 10 12 13 16 12 13 34 43 53 49 39 40 33 34 45 44 42 53 61 67
96 83 56 35 24 22 21 18 14 7 5 5 4 6 8 8 9 11 13 15 15 22 31 51 58 42 49 64 57 48 43 50 69 66 57 56 61 66
39 31 29 26 25 23 19 16 10 7 5 5 7 10 10 10 12 13 14 18 18 27 34 42 61 53 44 51 84 68 59 70 82 90 79 63 60 67
29 29 28 26 22 18 18 14 11 6 5 7 11 12 11 11 13 14 18 23 21 30 51 47 50 44 41 47 61 73 67 88 92 89 88 73 61 67
33 32 28 23 18 20 16 10 7 6 8 11 13 13 14 15 16 18 24 28 29 25 41 47 47 44 41 52 62 73 70 94 88 91 95 90 77 66
37 36 34 28 23 22 12 7 6 9 13 14 16 17 17 17 20 22 29 32 35 36 29 43 54 53 54 60 68 71 78 80 89 90 93 90 78 77
39 37 33 32 28 19 11 7 8 15 15 17 18 21 29 37 26 24 28 33 33 39 42 29 39 59 69 80 83 77 81 79 76 71 75 75 43 62
50 44 38 34 27 16 11 8 12 18 20 22 26 36 41 37 29 28 30 33 33 36 36 34 28 38 69 94 86 77 80 80 80 77 86 92 77 64
55 47 39 30 18 11 7 10 20 22 26 26 31 44 46 42 37 38 38 38 41 40 36 34 32 34 67 88 98 70 79 86 86 95 100 99 100 98
52 44 34 20 10 7 8 18 28 32 33 31 39 53 56 55 54 51 48 45 45 47 40 37 33 30 63 96 100 100 62 73 95 100 100 98 99 100
50 38 28 16 8 7 13 34 37 40 39 38 58 65 65 64 66 65 62 56 49 47 39 37 39 30 49 88 100 100 95 95 98 100 100 100 100 100
47 34 21 10 7 11 34 42 41 46 43 58 66 68 68 68 69 69 67 63 61 53 39 35 44 37 41 83 90 88 97 100 96 99 92 86 99 100
35 22 11 8 11 26 50 45 49 50 61 66 64 62 62 64 63 63 62 57 53 53 40 37 38 34 35 76 85 90 92 100 100 100 100 80 90 93

GFSNE_500_rhum_063.txt.gz
RH
64 59 50 61 69 88 98 93 94 94 90 99 98 66 81 96 89 82 89 96 97 97 96 98 94 90 87 89 93 85 78 77 71 66 56 50 48 46
47 54 58 53 60 77 80 84 72 91 92 74 86 74 85 88 74 79 100 100 97 97 95 94 93 83 86 88 93 89 84 77 67 64 63 60 58 55
62 58 39 34 42 99 100 52 96 59 58 75 88 86 97 96 84 94 97 96 96 93 96 96 86 74 80 86 81 78 91 86 77 69 61 51 44 41
80 51 32 34 45 51 46 38 32 37 41 37 37 68 90 85 92 100 100 92 94 98 88 90 85 84 80 75 64 48 36 27 21 18 16 15 16 18
92 85 57 34 38 45 37 41 36 32 77 100 100 100 98 99 97 96 95 96 91 74 47 31 22 16 15 14 13 11 10 10 8 6 7 8 8 8
96 91 73 56 48 42 33 28 24 40 100 100 100 99 97 96 95 90 51 19 11 7 6 5 4 4 3 3 3 3 4 4 5 5 5 5 5 5
100 89 80 68 53 40 31 70 100 96 91 88 99 100 94 66 44 31 13 8 6 5 5 3 3 3 3 4 4 4 5 5 4 4 5 7 14 23
100 93 71 52 48 54 86 100 99 99 100 100 98 60 20 11 6 5 5 4 4 4 4 4 4 4 4 5 5 5 6 7 8 10 24 25 28 29
86 88 100 99 100 100 92 92 100 99 87 54 25 21 13 8 5 5 5 4 5 5 5 7 7 6 8 9 9 8 11 22 31 29 30 32 30 34
100 100 91 91 96 98 100 97 93 59 26 20 18 13 10 7 6 6 4 6 8 8 8 8 8 12 26 29 34 35 30 29 29 32 31 32 40 50
99 99 92 100 96 92 66 37 25 23 21 19 18 13 8 7 6 4 8 10 9 10 10 12 14 22 46 51 44 38 32 34 39 44 43 44 48 55
97 86 65 43 32 28 27 26 24 21 19 18 13 9 9 6 6 9 12 11 10 11 11 18 23 33 57 75 60 41 39 37 47 53 56 60 68 71
41 34 31 30 30 30 29 27 24 20 21 21 11 9 7 7 10 13 14 15 15 15 13 17 27 31 52 63 75 48 37 50 61 68 69 79 80 70
31 30 31 33 34 34 34 32 30 28 26 18 10 8 8 12 14 16 18 20 26 21 17 20 25 27 34 57 69 73 61 66 73 81 78 78 71 59
39 40 40 40 40 40 39 37 35 31 22 11 8 8 13 15 16 19 26 35 29 22 20 20 24 28 29 34 50 59 55 86 75 74 73 74 43 46
48 49 51 52 52 50 46 41 34 24 13 8 8 13 16 16 21 25 37 38 28 28 28 24 27 29 34 31 36 52 62 79 80 74 72 62 48 57
59 61 62 60 55 51 45 38 28 13 8 8 14 19 16 23 25 33 44 40 36 38 42 33 28 30 34 35 33 47 73 87 80 69 66 74 71 87
60 60 59 54 50 48 42 35 17 8 7 14 24 20 28 31 32 46 53 52 51 51 48 45 42 37 37 49 43 44 85 85 74 61 50 80 95 88
59 61 61 57 55 47 38 14 8 8 15 32 29 38 39 36 45 63 66 67 67 64 60 52 46 36 28 33 38 51 79 90 99 100 91 97 100 100
62 64 64 62 53 38 18 10 6 12 32 39 44 47 41 46 62 67 70 71 73 74 75 67 55 42 26 27 30 37 71 70 81 98 98 94 99 100
62 67 66 60 44 28 16 7 11 25 47 44 48 49 50 62 62 62 65 68 68 66 64 61 53 46 30 26 36 38 48 84 80 96 100 98 100 100
66 67 63 45 35 14 8 13 23 47 46 46 53 61 66 65 63 59 54 55 58 60 61 57 50 48 37 27 35 32 40 76 97 100 100 94 92 100
65 67 54 44 26 10 14 22 41 49 50 54 68 68 73 70 64 61 62 59 50 49 49 53 53 46 40 34 32 31 36 66 91 100 100 98 87 94

GFSNE_500_rhum_066.txt.gz
RH
36 67 69 66 68 59 65 68 58 50 64 92 95 98 94 92 98 98 64 92 99 100 88 78 66 87 87 79 89 83 86 82 75 73 73 72 70 68
31 34 80 93 82 78 72 70 64 58 56 96 73 96 97 95 91 100 88 88 91 70 68 81 86 78 81 86 99 90 85 81 70 72 67 76 74 75
53 47 59 100 100 100 96 88 75 74 97 88 97 99 73 84 51 44 40 40 78 86 90 94 86 83 93 97 90 81 76 71 67 66 67 66 69 72
63 100 93 98 100 100 100 91 68 54 59 80 72 53 44 43 65 76 90 93 94 88 92 95 80 47 17 17 13 13 12 10 8 8 8 8 10 11
91 93 98 100 95 99 98 76 81 88 68 59 56 46 36 32 71 98 99 99 100 88 54 18 7 6 6 6 5 5 4 4 4 4 3 4 4 3
80 100 88 100 100 94 97 87 57 54 67 55 36 45 76 76 94 100 100 97 79 43 19 9 6 5 6 6 6 5 4 3 3 3 3 3 4 4
59 54 94 100 100 100 99 94 68 56 43 38 42 98 100 100 100 95 79 43 26 17 6 6 7 6 4 4 4 4 4 5 5 5 5 5 6 6
50 98 100 100 99 100 98 76 55 48 69 100 100 100 100 99 74 25 13 12 10 7 7 6 4 5 5 6 6 6 6 5 5 7 6 8 15 21
100 100 100 99 98 98 100 99 98 99 100 100 95 83 31 20 18 19 14 8 9 8 5 5 6 9 10 9 8 6 6 17 26 30 31 30 30 30
96 98 98 92 97 100 100 100 92 80 57 42 27 23 20 19 19 17 10 11 10 6 5 11 13 13 12 12 11 10 18 26 31 29 30 33 38 41
100 100 99 96 87 70 54 36 29 29 29 27 25 22 20 20 23 17 10 8 6 8 10 15 18 19 18 19 17 18 32 36 31 32 34 36 43 49
50 44 40 36 33 32 32 34 34 35 35 34 33 32 31 30 22 12 7 8 11 14 15 19 24 25 22 29 34 27 34 42 39 32 30 35 47 49
38 36 35 36 37 38 39 40 41 44 46 46 43 40 34 24 13 10 9 12 15 16 18 21 30 26 20 23 35 34 30 38 48 45 42 47 59 63
36 37 40 43 46 48 50 51 52 52 49 46 42 36 27 13 8 9 13 17 18 19 22 27 30 24 23 25 28 34 32 31 40 51 57 66 68 58
48 48 49 50 48 48 49 51 49 46 47 44 40 28 11 7 8 14 19 19 17 26 28 35 32 29 27 25 24 31 29 39 38 54 72 73 64 51
48 47 47 47 48 50 52 52 49 49 47 43 31 14 7 8 16 22 19 17 31 32 43 46 39 36 39 40 34 34 29 31 39 65 76 74 68 56
47 48 49 49 49 50 54 54 53 53 44 28 16 10 9 19 28 24 26 36 37 49 60 60 55 47 46 44 45 38 29 31 47 79 83 88 82 69
52 52 52 50 50 54 59 56 56 50 26 8 7 12 23 35 31 43 43 42 56 67 72 72 69 64 62 68 54 54 37 36 44 69 85 78 94 88
51 49 49 49 51 56 56 54 46 22 7 7 16 24 42 42 56 54 49 60 64 64 69 70 69 61 56 54 57 58 39 34 42 55 82 85 93 100
50 48 49 49 50 52 56 52 35 12 7 16 27 46 46 52 57 58 63 59 58 57 60 60 59 54 50 45 43 55 38 26 33 42 65 94 96 100
50 50 50 48 48 53 58 54 24 10 13 22 36 42 44 52 63 66 67 62 59 59 58 54 50 47 46 42 39 42 37 27 27 40 54 74 96 100
55 55 54 54 57 60 63 45 26 10 20 26 33 42 45 58 64 70 72 70 69 64 60 63 64 54 45 41 40 40 39 36 34 34 40 59 82 93
63 54 49 48 49 61 67 50 17 12 23 33 33 39 55 60 59 68 73 75 76 77 67 65 66 66 63 45 39 40 35 27 26 34 33 45 84 90

GFSNE_500_rhum_069.txt.gz
RH
20 18 20 24 27 29 50 73 99 99 86 75 80 86 90 75 97 96 98 99 99 98 96 97 97 93 52 54 60 62 62 65 67 67 63 64 68 82
24 33 41 61 67 61 60 66 80 99 95 81 75 82 96 81 94 98 99 98 98 94 74 47 42 42 94 89 82 80 85 74 67 65 67 68 83 76
18 34 56 64 73 71 81 73 67 69 97 99 75 99 95 99 99 98 100 89 66 45 48 91 96 98 97 88 82 76 70 62 52 51 54 48 48 42
16 30 41 60 67 69 84 90 79 94 94 100 100 99 100 96 96 97 85 60 39 29 81 91 100 91 65 56 54 44 35 27 18 7 6 6 7 7
24 20 25 40 51 62 100 100 100 100 97 100 95 94 89 75 72 80 46 56 96 100 100 99 88 61 20 13 8 6 6 7 8 7 5 4 4 4
30 34 31 38 56 90 100 100 100 100 94 97 98 80 72 55 55 42 51 91 100 99 81 37 18 15 12 8 8 7 6 5 4 4 4 4 4 3
29 44 59 57 62 76 90 100 100 100 99 100 99 82 59 48 70 94 99 86 59 38 21 17 12 9 10 11 9 7 6 5 5 5 6 7 7 6
39 41 53 68 80 92 95 90 100 98 95 88 94 92 100 100 97 67 42 29 29 20 18 13 9 12 12 10 8 7 7 6 7 9 9 6 12 22
52 59 55 66 82 93 96 100 98 99 98 95 88 74 55 39 29 24 21 19 18 20 22 21 9 8 8 6 7 8 9 13 14 12 8 17 29 32
52 58 71 81 87 95 98 94 86 58 43 35 31 31 31 31 30 28 27 29 31 30 22 11 8 8 10 11 14 15 17 18 16 12 15 33 39 34
33 34 33 31 31 32 31 31 32 33 35 36 36 38 40 42 43 44 42 39 33 23 12 10 10 13 16 17 19 21 22 19 16 15 21 33 35 30
32 33 32 32 33 36 38 39 40 41 43 44 45 47 48 46 44 42 39 31 22 11 8 9 12 14 18 24 30 30 25 21 19 20 22 29 34 28
38 37 36 36 37 38 39 40 42 42 43 44 46 44 43 45 45 43 34 16 9 8 9 14 19 19 19 30 38 33 29 27 24 23 24 30 36 33
37 36 36 38 38 40 41 42 42 43 44 47 51 52 53 48 38 24 12 10 12 15 19 22 22 19 28 41 41 38 37 37 29 24 27 32 37 46
37 40 42 42 42 42 43 42 42 42 43 49 49 45 44 28 13 7 8 14 23 28 27 24 20 32 38 49 51 47 41 49 38 28 31 35 52 68
47 49 47 46 42 40 40 42 42 41 44 44 42 38 27 14 10 9 17 28 34 26 23 36 37 39 56 60 58 56 49 44 45 31 30 39 55 81
53 51 48 44 43 42 42 42 40 39 40 42 43 36 17 9 10 18 34 37 37 52 48 40 45 56 58 60 61 56 56 50 39 27 30 42 50 80
57 52 49 46 45 44 44 42 40 38 41 41 45 32 9 11 17 32 39 49 54 51 58 58 52 51 52 58 51 58 57 50 43 32 29 37 44 73
62 55 50 50 49 49 48 44 35 34 43 47 45 14 10 18 25 34 40 47 54 63 58 54 52 50 47 47 58 56 50 50 42 34 29 31 40 55
63 57 53 55 56 52 44 35 34 41 50 56 32 13 13 23 27 33 38 45 58 61 64 61 54 52 54 55 58 61 53 48 40 36 30 28 32 43
66 58 58 63 66 65 59 52 56 57 58 56 25 17 16 28 30 34 40 52 55 64 72 77 72 62 59 57 59 66 58 51 40 31 25 22 28 37
72 68 70 74 77 80 81 80 80 71 69 59 26 19 20 34 43 46 55 60 57 62 69 76 78 77 77 66 59 60 63 60 39 32 26 18 22 28
85 83 84 86 89 91 89 89 92 80 76 69 30 20 23 38 49 61 64 66 65 64 64 70 75 80 83 75 66 61 60 54 39 34 36 22 20 21

GFSNE_500_rhum_072.txt.gz
RH
12 14 12 14 13 12 19 20 47 70 68 73 73 67 46 74 76 99 100 95 98 98 98 99 98 98 96 88 84 63 54 34 48 63 62 59 65 64
10 11 7 10 13 19 17 21 38 58 80 91 93 87 43 99 92 100 94 95 98 99 99 99 97 96 81 49 58 75 67 80 88 74 60 62 64 61
12 9 10 12 22 21 21 24 34 53 68 73 88 84 83 83 87 96 100 98 100 99 97 96 86 64 43 38 59 79 79 66 62 64 64 61 51 44
21 18 15 13 20 21 30 26 30 56 90 98 94 81 84 100 98 100 100 98 96 93 85 93 56 66 91 82 76 84 79 69 48 28 14 13 11 9
18 25 23 19 23 24 38 46 38 63 99 98 100 98 100 96 84 98 96 99 96 73 54 49 61 100 95 85 61 46 28 18 14 9 9 9 8 7
22 31 28 26 27 29 39 46 74 77 88 98 100 100 84 89 96 94 81 72 56 73 92 92 81 60 32 21 20 16 13 10 12 13 12 12 12 11
27 43 36 39 39 34 40 55 63 72 92 89 95 97 95 99 97 93 96 98 98 84 46 39 25 21 20 20 19 14 12 11 12 16 11 9 9 8
30 40 49 50 47 48 45 56 66 75 85 76 76 82 86 83 81 68 53 39 32 26 21 20 20 19 22 25 27 26 19 11 9 11 8 7 7 7
30 33 32 29 29 38 50 54 62 63 56 47 52 48 44 39 33 29 29 30 31 33 33 33 35 37 37 34 25 16 11 10 8 7 8 9 10 15
24 25 26 26 26 25 24 25 26 25 26 27 28 30 30 31 32 34 36 39 41 44 45 43 42 37 29 20 12 10 9 8 8 10 14 15 19 18
24 25 25 26 26 24 25 27 29 31 32 33 35 36 36 37 37 39 42 42 43 44 44 42 36 25 15 12 10 11 11 12 15 18 18 21 21 16
25 26 27 27 28 29 31 33 33 33 33 34 34 34 35 37 41 46 48 48 41 42 36 20 12 12 13 14 16 18 20 19 19 22 25 26 22 19
30 30 31 32 33 34 37 38 38 36 35 35 35 36 36 39 42 38 31 31 25 18 13 10 12 15 21 30 31 28 24 22 31 31 35 30 28 23
34 34 36 38 42 44 43 41 37 35 34 34 34 35 36 35 34 34 34 25 11 8 8 15 25 28 30 31 32 28 34 44 46 50 47 39 32 26
47 45 44 47 49 47 43 39 35 33 35 37 37 35 33 29 27 31 19 7 7 10 16 29 38 37 32 27 33 51 53 62 63 64 60 51 39 30
56 58 58 57 53 48 44 39 37 39 40 40 35 24 27 28 30 31 15 8 11 14 27 34 34 45 49 49 56 70 71 76 78 73 63 57 46 34
66 67 66 64 57 52 43 41 42 44 44 37 28 34 40 38 38 38 17 12 18 22 31 42 46 46 55 60 59 52 54 55 54 59 57 54 49 36
74 74 72 69 61 55 48 48 50 53 52 49 44 53 55 51 47 42 16 16 22 29 36 38 44 49 52 57 53 56 52 52 47 44 45 45 48 47
75 75 75 72 65 61 58 60 64 67 73 74 78 77 70 62 57 36 18 20 25 29 36 44 46 50 62 70 74 57 53 59 61 48 43 42 43 44
80 81 80 79 77 72 68 72 75 78 87 93 88 85 77 71 68 40 22 23 32 33 36 45 47 50 58 66 86 99 68 63 62 62 54 40 37 38
89 90 91 88 80 77 77 75 78 82 93 99 98 92 84 82 81 53 24 25 37 46 48 55 55 53 57 59 67 88 100 84 73 60 56 45 34 35
94 96 89 87 83 82 83 84 87 92 97 99 99 97 92 94 90 52 25 27 39 48 60 68 68 64 61 57 59 66 88 89 77 66 59 44 31 29
98 89 87 84 83 88 84 85 99 100 100 100 100 99 100 100 96 52 27 29 38 51 55 71 81 78 81 74 65 65 75 82 78 70 69 56 42 24

GFSNE_500_rhum_075.txt.gz
RH
6 9 12 13 12 14 10 11 12 12 15 18 19 42 50 61 74 96 100 78 98 94 93 100 99 99 99 99 96 99 97 93 91 92 84 68 54 46
8 13 15 18 18 18 17 16 16 16 17 27 41 55 64 73 74 81 93 86 92 95 99 100 100 99 96 97 96 97 90 86 59 56 71 73 73 81
12 18 18 18 19 19 22 21 18 18 20 29 37 46 72 83 88 97 73 73 83 99 100 97 99 97 97 92 92 87 85 72 55 55 65 64 58 56
18 19 18 18 17 22 27 24 22 19 23 32 45 38 81 79 100 90 65 51 75 86 96 95 97 97 98 89 58 53 61 78 87 84 79 74 70 64
20 20 19 15 18 30 32 32 32 26 27 35 51 54 75 86 86 86 92 79 72 84 81 83 76 70 72 80 88 90 93 90 75 64 47 33 23 19
22 21 18 14 21 30 41 43 40 38 36 44 51 62 66 75 83 83 72 72 78 79 80 85 89 91 81 68 47 41 31 25 23 21 17 12 12 12
24 22 16 17 22 28 30 34 38 48 44 45 50 59 66 66 66 66 62 60 62 58 53 41 32 29 22 20 18 17 18 19 21 23 24 24 21 15
24 19 16 18 22 27 26 22 20 19 18 18 18 21 22 23 24 26 27 29 31 35 37 35 37 35 36 34 32 34 37 40 39 34 25 18 13 10
22 20 20 20 20 20 18 17 18 17 17 18 20 22 23 24 24 26 27 28 30 34 34 36 42 43 44 44 42 40 40 40 35 26 17 12 10 10
23 22 22 22 22 21 20 19 20 20 22 25 28 28 28 29 29 29 28 28 30 34 36 39 40 35 32 33 37 38 33 26 19 14 12 12 12 12
26 26 26 26 26 24 24 24 26 29 32 34 33 32 31 29 27 28 29 29 30 32 29 24 21 21 19 16 16 14 10 11 13 14 16 17 18 18
31 29 29 30 30 30 32 33 36 39 39 37 34 31 29 29 29 29 30 30 27 20 18 21 18 8 7 7 9 12 15 19 22 23 25 24 22 20
36 34 36 39 40 39 40 43 45 44 42 38 33 31 30 30 31 31 26 22 21 21 24 24 13 8 8 11 19 26 31 32 32 30 28 24 24 33
49 47 46 47 50 52 53 54 52 48 44 38 32 31 32 34 34 27 25 30 32 34 32 23 9 9 12 20 34 38 35 32 28 26 29 35 37 42
65 59 54 54 58 61 62 63 59 53 45 38 36 39 41 42 37 33 40 49 49 43 39 14 10 16 17 27 35 40 42 45 45 48 55 62 63 58
76 74 68 62 62 65 67 67 64 58 50 45 46 49 55 60 64 70 71 65 58 50 46 18 14 20 24 33 43 52 51 61 59 52 51 54 52 52
89 87 82 74 71 72 72 72 69 63 58 57 59 62 66 72 81 84 82 74 67 64 55 26 17 24 30 39 51 49 52 53 53 58 57 58 56 51
98 94 88 86 82 78 77 75 74 72 67 65 65 68 74 82 89 89 88 83 77 77 65 32 18 25 30 42 49 57 60 56 59 60 56 57 66 59
94 94 96 97 91 85 83 82 80 73 72 73 74 75 78 91 96 98 99 96 90 91 77 34 23 26 35 39 56 53 58 59 61 72 68 64 63 70
96 94 96 97 95 88 82 75 72 69 71 78 81 78 88 89 98 100 100 100 95 100 90 50 30 24 38 46 58 86 60 59 60 67 72 72 70 64
99 99 96 93 82 82 79 67 32 19 20 32 42 46 81 98 100 100 100 97 97 100 99 48 32 25 33 46 62 92 97 72 62 62 67 67 73 71
96 96 88 80 80 64 30 16 15 15 17 19 27 65 91 100 100 100 100 100 100 100 84 32 35 40 48 49 63 81 100 100 88 70 67 62 63 62
91 85 76 66 28 17 14 14 14 14 16 18 48 87 95 100 100 100 100 100 100 77 28 28 36 44 63 71 67 75 89 100 100 100 93 72 63 54

GFSNE_500_rhum_078.txt.gz
RH
9 6 5 5 6 8 14 14 14 12 15 22 20 15 20 25 23 40 42 66 69 100 97 96 98 97 99 98 99 97 97 99 98 98 99 100 98 98
7 5 7 7 10 15 16 17 15 13 24 23 21 18 25 23 21 48 60 60 86 95 86 86 79 100 99 100 100 100 100 100 97 96 98 96 96 94
6 8 9 12 18 18 19 18 13 19 30 31 29 28 31 34 32 55 65 72 100 70 57 55 77 84 95 96 98 99 99 96 93 91 93 90 94 87
9 10 14 19 19 20 20 16 14 23 36 37 36 35 36 40 51 56 59 60 98 68 56 79 73 82 77 88 88 88 93 95 93 77 90 97 100 98
12 15 19 21 21 22 20 14 16 25 30 30 29 40 39 37 46 57 62 70 74 75 74 74 76 75 75 74 84 88 93 97 94 90 91 100 98 96
20 21 25 24 25 23 15 15 17 22 20 17 21 27 16 12 15 19 27 34 40 44 47 52 51 50 46 52 45 41 40 40 40 41 47 41 30 22
25 28 26 26 24 17 16 15 15 15 16 16 14 14 15 17 19 19 20 21 22 24 26 27 26 26 31 34 36 36 34 30 26 21 18 18 19 20
31 28 29 23 18 18 18 18 19 18 17 16 16 17 20 23 24 23 22 22 21 22 20 20 27 29 38 42 43 43 44 44 44 45 46 46 45 42
32 31 27 21 20 21 20 21 22 22 22 21 22 23 26 28 28 27 26 25 23 21 21 21 24 25 25 25 22 20 19 20 19 21 30 35 32 29
34 33 26 23 23 24 24 26 26 28 29 30 31 34 36 36 33 30 26 24 23 21 21 23 24 22 18 16 16 17 16 11 7 7 8 11 13 14
38 35 32 29 28 27 28 31 33 35 37 39 41 42 41 39 34 29 26 24 23 23 23 23 21 20 22 24 24 22 15 9 7 9 12 17 20 21
44 44 44 43 40 38 38 40 42 44 46 47 49 47 44 41 35 30 28 28 29 30 28 27 30 36 40 36 29 17 8 7 9 10 22 31 34 34
54 56 57 58 56 53 51 50 49 49 50 54 58 55 50 44 37 36 37 38 40 39 37 44 54 54 46 40 29 12 10 14 13 19 30 34 35 35
63 66 67 70 72 72 69 62 58 57 59 63 64 62 57 51 48 49 49 52 54 56 63 68 66 60 52 52 24 12 14 19 22 28 32 36 37 38
73 73 73 78 83 83 80 74 70 66 65 67 69 70 68 63 59 58 58 62 67 66 74 81 76 69 67 62 26 16 19 23 22 25 32 41 43 42
79 74 72 74 82 87 85 84 81 76 74 76 76 74 71 66 64 65 66 66 75 79 87 90 89 82 82 72 32 22 22 29 35 30 32 39 40 43
82 82 80 73 82 93 91 84 85 84 82 77 71 65 48 38 32 37 50 54 79 88 96 96 94 90 92 85 44 29 27 32 35 42 43 50 52 50
82 83 77 76 86 92 91 90 86 80 76 71 46 17 13 13 14 17 20 37 93 100 100 99 95 88 89 94 77 44 33 32 36 42 52 58 73 74
83 78 75 81 91 94 92 86 78 69 62 25 13 13 12 12 14 16 21 58 96 100 100 98 92 85 90 98 90 66 37 35 43 47 54 60 66 88
82 79 78 83 89 87 79 80 76 52 14 13 13 15 17 16 16 19 40 76 94 100 100 99 89 84 86 89 89 55 39 36 43 56 62 64 66 71
85 86 85 85 81 75 76 71 30 13 14 16 20 23 24 21 17 23 63 82 89 97 100 100 98 89 88 64 31 35 65 69 60 62 68 76 81 76
95 94 92 86 80 82 69 25 14 14 16 20 20 21 27 28 20 36 75 95 100 98 99 100 95 52 31 29 32 34 50 99 88 76 78 76 82 89
100 100 100 92 85 87 38 15 14 15 18 19 18 21 29 26 19 48 76 90 91 98 95 65 30 29 30 29 28 30 40 54 77 95 100 87 74 77

GFSNE_500_rhum_081.txt.gz
RH
12 13 12 10 6 6 6 7 11 12 13 17 15 16 25 28 28 28 27 27 37 38 47 68 99 99 74 100 100 98 100 91 94 99 98 97 100 97
14 14 12 8 6 8 9 14 16 15 17 16 13 18 31 36 34 32 32 36 40 61 54 60 64 64 91 99 93 99 100 100 100 100 100 99 99 99
16 15 10 8 9 11 15 18 18 21 20 15 14 20 30 33 33 35 32 31 44 57 59 44 44 56 70 73 80 74 91 98 97 94 94 99 98 98
17 12 10 12 15 17 20 22 22 22 18 14 16 22 24 21 29 23 13 16 34 48 56 66 69 78 81 77 74 71 74 80 85 86 75 84 96 99
16 13 14 18 22 24 24 23 23 17 14 13 13 13 13 13 12 12 14 16 17 17 20 30 36 43 52 51 58 64 71 72 75 86 87 95 94 99
16 16 20 24 27 25 26 25 17 16 15 15 14 14 12 13 14 17 20 21 22 22 22 22 21 21 21 22 24 24 24 25 26 27 27 30 44 57
18 23 28 30 29 29 27 18 16 17 17 18 17 15 15 17 19 21 25 27 27 26 25 24 23 21 21 21 20 20 22 23 25 27 32 36 38 36
28 32 33 33 32 30 23 18 18 19 21 21 21 21 21 21 24 27 31 32 31 29 26 24 21 18 17 17 18 21 24 20 17 16 16 18 19 24
39 39 36 35 34 30 24 22 23 24 25 27 28 30 32 34 38 39 39 37 34 30 25 22 21 20 20 19 19 20 19 19 18 20 21 19 16 9
43 38 38 39 38 36 35 35 33 32 33 33 35 37 39 41 44 45 42 40 37 31 27 26 25 25 25 25 24 24 27 33 35 29 27 21 14 9
42 42 42 44 43 46 50 50 48 46 46 44 44 45 46 49 52 53 51 47 41 37 36 35 35 35 34 33 34 38 48 49 38 33 21 11 7 9
47 48 50 54 57 59 61 62 61 63 62 58 55 55 55 57 59 60 59 56 51 49 47 47 46 48 52 54 59 60 57 51 40 37 18 11 14 15
57 60 64 64 63 65 66 64 67 71 71 67 66 65 63 64 65 65 65 63 59 54 49 47 54 61 66 70 76 76 70 58 53 37 13 17 19 21
74 76 75 72 72 70 66 65 68 74 74 73 76 75 72 70 69 66 61 42 22 13 14 21 31 47 64 81 93 88 79 68 65 43 16 22 25 26
88 86 81 80 77 74 72 68 70 76 77 78 81 78 71 66 59 40 16 13 15 14 12 12 16 24 66 95 100 100 95 74 70 66 27 21 29 32
99 92 86 85 77 75 72 67 69 75 82 81 78 72 65 55 22 13 13 14 14 19 16 13 15 38 89 98 100 100 95 95 84 70 65 30 26 34
100 93 94 91 80 78 72 70 71 77 77 75 70 66 52 15 13 16 21 24 25 25 19 14 25 56 87 97 100 98 100 97 88 83 74 60 32 30
100 97 96 89 84 76 71 70 70 69 66 68 67 58 18 15 16 20 22 28 37 33 17 17 40 68 86 99 98 100 100 96 87 90 87 81 44 37
100 100 99 94 83 77 76 73 68 62 67 69 60 16 14 15 18 20 19 28 40 28 17 23 54 70 82 91 100 100 98 92 95 100 93 70 44 53
100 100 99 96 89 87 85 80 74 75 73 73 22 14 14 16 18 18 18 31 39 23 26 42 63 77 82 83 96 100 91 67 42 34 36 34 41 56
100 100 100 99 93 94 95 91 92 83 75 59 18 13 15 17 18 17 19 34 38 18 34 78 87 81 84 79 57 30 32 30 29 29 36 37 45 65
100 100 100 100 99 100 99 98 98 88 89 50 15 14 18 20 23 23 26 39 27 17 41 86 91 91 64 22 21 23 27 32 30 29 31 32 38 52
100 100 100 100 100 100 100 100 100 97 93 36 16 16 24 26 28 27 36 43 21 19 47 89 96 50 22 21 27 40 40 33 34 42 52 42 37 40

GFSNE_500_rhum_084.txt.gz
RH
30 24 15 13 13 14 13 8 6 8 11 17 15 18 19 16 13 16 28 32 30 30 23 31 24 31 39 61 62 93 99 100 98 98 100 93 92 96
27 15 13 13 14 16 11 8 9 12 13 15 16 17 17 14 14 18 23 21 28 12 17 33 36 25 38 41 58 69 81 98 100 100 88 89 84 89
19 16 14 14 17 14 10 11 15 16 18 17 17 16 13 13 13 13 15 15 12 10 12 16 27 39 53 60 65 71 77 76 72 90 100 95 100 99
20 15 14 18 18 12 13 18 20 22 20 20 16 14 14 13 12 11 11 11 12 14 15 16 16 16 18 24 36 48 58 61 59 68 77 77 86 89
19 15 19 21 17 15 19 22 26 24 24 18 15 15 15 14 13 12 12 13 15 18 22 22 22 21 20 20 19 18 17 17 17 20 40 61 72 73
17 23 24 22 20 22 26 30 28 27 23 17 17 17 17 18 17 16 16 17 19 22 26 29 28 27 25 23 21 19 18 16 16 16 15 16 19 19
26 25 23 24 29 32 34 31 30 28 20 19 20 21 22 23 23 24 24 25 27 31 34 34 33 30 25 23 21 19 18 18 18 18 18 16 15 14
28 27 28 36 38 38 35 34 33 28 25 26 27 27 28 29 31 33 34 35 38 40 39 38 36 32 28 25 24 23 22 22 21 21 20 20 19 18
33 37 41 45 42 38 37 37 37 37 38 40 40 39 39 39 39 39 39 42 46 48 46 44 40 35 32 31 31 31 30 28 27 27 27 27 30 34
44 46 53 48 41 40 40 42 45 48 52 54 54 53 52 51 50 49 48 49 51 53 54 53 50 47 46 45 44 44 42 41 38 36 39 44 44 42
53 56 48 45 45 45 50 52 55 58 60 58 59 60 61 61 60 58 55 53 54 56 56 57 56 49 41 21 13 14 19 42 56 57 61 62 57 46
58 54 52 50 51 56 60 60 61 60 57 55 55 63 69 66 64 61 60 58 58 57 52 31 14 15 15 15 16 16 15 17 50 69 75 78 71 54
70 61 57 59 66 70 70 68 63 60 58 58 59 66 70 68 64 63 58 54 50 29 14 17 20 22 22 24 20 14 12 17 47 84 99 94 81 69
72 63 67 77 81 80 75 69 64 62 61 58 55 62 70 68 64 58 53 48 23 16 18 20 23 28 32 33 22 14 12 29 82 100 100 100 99 78
68 74 84 86 91 86 74 72 68 64 64 63 62 65 66 64 58 56 57 19 17 18 19 21 27 38 39 31 17 18 28 62 90 92 100 100 100 90
80 84 92 95 92 81 80 78 73 68 64 61 61 62 61 54 55 56 31 15 18 17 18 19 32 42 43 27 16 36 70 93 92 88 86 93 98 100
93 93 96 98 88 87 86 84 80 73 65 60 60 58 55 54 63 55 16 16 16 17 18 26 33 45 42 19 21 51 88 93 87 85 85 88 88 89
73 86 97 91 89 90 93 91 86 80 72 66 67 68 68 68 70 35 14 15 15 17 20 27 38 51 35 18 33 76 92 86 79 81 84 88 99 93
79 92 99 92 90 97 100 98 95 87 77 74 84 83 84 80 78 45 14 14 16 19 25 33 46 52 28 17 60 92 84 83 85 88 84 81 74 67
88 91 91 96 100 100 100 100 98 91 83 87 93 97 96 89 87 41 16 15 22 27 36 47 53 49 26 20 63 100 96 76 33 20 22 21 22 25
100 100 100 100 100 100 100 100 100 100 97 97 96 100 100 98 89 33 16 19 25 31 53 60 60 45 23 22 63 95 50 18 20 23 30 31 30 29
99 100 100 100 100 100 100 100 100 100 100 98 100 100 100 100 91 27 18 20 23 35 75 74 59 42 18 32 80 51 20 24 27 31 29 28 37 48
98 100 100 100 100 100 100 100 100 100 100 100 100 99 100 100 76 20 18 21 31 61 89 84 64 24 20 54 71 19 26 29 24 23 24 21 24 33

GFSNE_500_rhum_087.txt.gz
RH
66 29 24 31 32 26 15 14 14 15 14 9 9 13 14 16 16 14 13 11 12 17 15 13 8 12 22 29 27 36 53 62 67 91 100 98 97 100
39 23 30 34 31 22 17 15 15 17 10 10 13 16 18 18 16 12 12 12 10 9 8 8 10 11 12 14 20 26 34 53 65 67 94 99 100 100
22 31 34 35 32 24 16 15 19 14 11 16 17 20 20 18 14 13 13 12 10 9 9 11 13 16 17 17 16 16 16 17 20 39 56 69 90 98
36 38 39 37 32 24 15 21 19 14 18 19 24 24 22 17 14 15 14 13 12 11 12 13 16 19 22 24 23 22 21 20 17 15 18 21 47 64
42 44 40 36 21 16 21 22 19 22 21 27 27 26 21 17 17 18 19 18 18 17 17 17 19 22 26 29 29 27 25 22 19 16 14 13 14 15
44 42 35 36 56 28 32 23 22 25 31 31 30 27 20 20 22 23 24 25 26 26 28 29 32 35 35 34 32 30 26 22 20 19 18 17 16 14
38 39 57 56 33 36 27 26 32 37 34 33 32 28 28 30 32 32 32 32 32 33 34 37 39 40 39 37 36 34 30 26 25 24 24 24 23 22
68 78 45 62 40 32 32 39 42 38 36 35 37 37 40 43 44 43 43 42 43 42 43 44 45 46 46 47 45 42 39 38 38 37 36 35 32 29
72 70 68 38 37 41 45 48 42 39 40 40 44 48 46 49 50 51 53 53 52 51 50 50 49 49 51 53 54 53 49 42 27 14 16 23 30 39
86 59 52 52 50 53 54 45 43 43 44 48 49 49 51 50 50 56 59 58 55 55 54 52 52 50 48 43 24 12 11 12 12 13 13 14 15 17
72 71 59 58 62 56 48 47 48 49 56 56 55 52 48 52 53 57 62 59 58 57 54 49 43 34 18 15 17 18 21 21 20 20 20 18 14 15
77 66 67 65 55 54 53 53 57 66 64 63 56 50 50 53 52 52 54 56 56 56 48 43 33 15 17 19 21 24 25 21 22 24 24 18 12 13
76 75 68 64 64 62 59 64 70 72 71 62 56 54 56 55 53 50 52 53 50 48 49 37 17 18 18 19 21 31 31 28 29 29 21 13 15 41
83 80 79 79 70 66 72 80 80 79 70 68 60 59 57 56 55 53 51 47 42 44 46 24 17 18 17 18 27 37 36 34 34 26 15 18 47 87
93 94 93 80 72 77 92 92 91 77 75 76 70 67 60 55 55 52 49 48 50 51 46 19 17 17 16 17 25 38 46 43 36 25 16 39 76 88
100 100 92 80 83 100 100 97 86 79 84 82 80 76 69 61 60 58 56 59 59 59 52 18 15 15 15 19 30 47 58 50 35 23 20 41 77 92
89 77 79 89 99 99 94 90 88 92 93 92 91 83 75 73 72 72 75 78 75 70 66 40 14 14 19 31 42 55 58 53 35 21 25 50 67 74
70 76 80 77 76 75 83 96 95 93 98 99 96 90 82 78 82 83 89 95 89 83 78 53 16 17 26 36 52 57 64 62 34 20 35 58 81 85
78 73 71 73 76 79 87 94 97 100 100 100 100 98 94 91 90 89 91 100 100 95 85 45 16 19 24 34 65 65 67 81 26 22 52 68 43 20
97 93 87 87 88 92 97 100 100 100 100 100 100 100 100 98 98 93 92 99 100 98 93 33 18 19 25 51 85 83 85 28 20 36 65 25 18 24
100 100 100 100 100 100 100 100 100 100 100 100 100 100 100 99 99 95 93 100 100 100 58 19 20 38 60 76 90 85 50 32 22 52 35 18 26 24
99 100 98 99 100 100 100 100 100 100 100 100 100 100 100 100 100 98 100 100 100 79 23 22 40 74 79 79 87 66 40 20 35 52 18 22 23 24
100 100 100 100 100 100 100 100 100 99 97 98 100 100 100 100 98 99 99 92 52 23 24 39 74 92 91 94 79 49 24 23 54 27 19 26 22 20

GFSNE_500_rhum_090.txt.gz
RH
76 72 74 72 68 44 24 30 32 32 23 17 17 17 12 11 15 15 16 16 13 11 11 10 8 8 9 12 13 13 13 16 16 21 22 47 71 94
65 65 71 66 48 25 31 34 37 31 25 19 18 15 12 19 18 17 19 16 12 12 11 10 9 10 11 15 19 20 20 20 18 16 15 15 37 66
69 71 69 49 26 32 35 39 38 30 19 20 19 15 17 20 21 22 21 15 14 14 14 13 12 12 13 16 20 22 25 26 24 21 18 16 15 15
75 68 43 30 31 39 42 43 35 21 36 24 20 20 22 25 26 24 20 16 16 17 18 19 19 18 18 20 24 28 32 32 30 27 23 20 16 15
76 76 39 28 37 43 45 36 42 56 33 35 25 26 29 30 28 25 21 20 23 26 26 25 26 28 29 30 31 33 34 34 33 31 27 22 20 18
74 76 72 38 39 42 33 58 64 33 29 31 31 35 34 33 32 31 32 34 35 36 35 35 36 37 37 38 38 41 41 39 38 36 32 29 27 25
59 46 43 42 41 41 78 60 49 56 38 35 41 38 37 37 38 40 42 44 44 43 43 44 46 45 44 44 44 45 46 46 46 46 44 43 42 40
54 51 51 60 66 73 61 65 78 42 42 46 41 40 40 42 44 42 42 42 41 42 49 51 51 50 49 47 45 43 42 41 42 35 17 10 9 9
79 81 85 79 77 80 87 50 56 52 52 46 43 44 45 48 45 43 42 40 43 48 53 53 53 51 48 43 38 33 30 24 12 11 14 12 10 10
95 93 94 93 94 70 68 94 65 61 51 47 46 49 54 53 48 44 39 42 46 49 54 52 51 50 45 38 35 25 15 15 16 16 12 12 13 13
98 99 98 96 93 95 91 76 72 55 51 51 54 60 61 57 48 44 42 44 42 40 48 48 47 45 40 36 26 16 18 19 20 21 20 20 20 21
94 93 96 99 98 96 92 76 57 56 56 58 67 68 67 60 53 49 47 44 46 46 47 46 40 39 40 36 19 17 18 17 19 27 26 27 28 28
96 98 100 100 100 98 73 62 65 64 66 74 82 80 72 67 59 56 51 46 47 51 46 41 40 42 45 38 18 17 18 17 16 23 39 46 48 40
100 100 100 99 100 82 79 77 74 76 88 96 94 86 78 76 68 64 59 54 51 49 51 49 49 52 54 46 21 17 17 16 16 25 47 57 59 53
100 100 100 100 100 100 90 92 86 93 100 100 98 87 90 91 83 75 69 65 61 62 64 68 69 68 63 62 47 28 14 15 23 37 48 58 65 63
100 100 100 100 100 100 100 98 98 100 100 99 100 99 93 95 92 88 83 77 71 69 73 76 83 84 79 74 65 34 16 20 25 32 52 64 70 73
100 100 100 100 98 83 84 92 96 91 89 96 100 100 99 99 98 96 95 89 86 82 80 78 86 95 94 87 66 28 18 18 21 40 65 78 83 48
100 100 100 96 84 83 90 91 86 82 83 90 100 100 100 100 100 100 98 95 93 92 92 86 86 95 95 95 59 21 18 22 43 67 64 78 59 36
96 93 90 88 90 89 88 87 90 92 96 100 100 100 100 100 100 100 97 98 97 94 96 91 89 92 100 84 25 20 33 66 72 66 77 72 44 21
99 98 100 100 100 100 100 100 100 100 100 100 100 100 100 100 100 99 99 100 100 98 98 90 87 93 91 32 23 30 64 78 77 77 74 50 23 32
100 100 100 95 98 100 100 100 100 100 100 100 100 100 100 100 98 94 100 100 98 96 96 90 80 53 30 40 45 61 85 71 75 82 55 36 21 55
100 100 100 93 95 100 100 100 100 100 100 100 100 100 96 93 93 91 95 94 92 98 92 64 34 40 62 69 65 86 90 89 88 76 43 33 24 50
100 100 97 100 100 100 100 100 100 100 100 100 99 94 93 94 93 92 94 81 54 37 43 52 58 78 95 81 81 86 72 90 88 47 38 28 38 41

GFSNE_500_rhum_093.txt.gz
RH
89 95 85 74 70 65 60 65 64 49 32 32 34 36 28 20 18 14 15 20 20 20 18 13 12 11 10 9 9 13 17 20 21 23 21 19 18 16
76 69 71 68 66 64 68 68 52 32 33 34 39 38 21 25 18 15 20 24 24 22 18 14 14 14 13 12 12 13 16 19 21 27 27 25 21 18
75 73 70 65 65 67 67 58 41 33 37 41 44 27 43 25 19 22 27 28 25 23 17 17 18 19 20 20 19 19 21 25 31 33 33 31 27 23
75 72 69 67 62 70 70 48 35 36 42 45 32 47 46 33 24 32 30 29 27 23 22 26 29 29 27 27 29 31 32 34 35 35 34 34 32 28
69 64 57 59 62 69 75 74 53 41 42 40 60 46 31 31 38 34 33 31 32 32 33 36 37 36 36 37 38 39 40 40 39 41 41 41 38 34
58 53 52 55 66 73 76 57 44 42 40 60 58 40 44 59 39 36 35 36 37 39 40 43 43 40 40 42 45 45 44 42 41 42 44 46 46 45
58 59 57 59 60 54 46 48 48 45 69 66 74 69 64 45 40 38 39 42 41 42 40 37 41 38 42 45 44 42 40 40 40 40 40 41 40 22
67 69 64 61 76 74 65 69 81 78 75 81 77 67 52 49 42 43 47 47 43 38 39 39 40 42 43 43 38 38 37 33 30 29 29 23 10 11
82 75 86 88 87 87 87 84 81 94 97 70 92 59 72 47 47 51 52 52 43 42 39 39 37 38 39 38 36 37 34 29 26 23 15 12 12 10
73 87 92 98 96 93 100 100 100 84 86 98 76 87 55 52 57 60 61 56 48 44 39 36 36 36 38 39 38 34 31 28 24 16 15 17 16 15
88 98 98 100 100 100 100 100 100 100 99 98 90 63 60 62 70 71 68 60 53 49 43 40 39 41 41 37 32 32 33 35 27 17 17 17 17 19
81 91 98 100 100 100 100 99 100 100 100 94 72 69 70 77 83 78 71 66 59 53 48 45 44 43 41 39 39 40 41 41 30 18 18 18 18 17
100 100 99 99 99 100 100 99 100 100 92 84 85 74 88 97 95 86 76 74 69 69 60 54 50 48 50 51 54 57 58 53 48 33 18 17 15 16
100 98 99 100 100 100 100 99 100 99 99 97 88 94 99 98 97 87 83 84 82 81 76 67 65 65 64 67 71 75 76 69 63 55 43 19 17 24
100 100 100 100 100 100 100 100 100 99 99 100 100 100 99 96 99 96 92 92 91 90 90 89 80 75 76 78 84 80 89 90 81 65 33 18 20 22
100 100 100 100 100 100 100 100 98 100 100 100 100 94 95 100 96 96 98 99 98 100 100 99 96 91 90 91 91 88 94 94 80 67 32 20 19 29
100 100 100 100 100 100 98 98 100 99 96 100 100 100 100 97 93 99 100 100 100 99 95 96 96 98 99 98 99 94 95 87 83 47 20 29 56 68
100 100 100 100 100 100 100 100 99 98 100 100 98 97 100 98 99 100 100 100 100 99 100 95 95 99 100 100 98 94 87 82 46 26 42 55 77 67
96 89 90 92 94 94 93 95 97 100 100 99 99 99 99 100 100 100 100 100 98 98 94 90 96 99 100 99 98 87 79 34 44 62 63 70 81 81
100 100 100 100 100 100 100 100 100 100 100 100 100 100 100 100 100 100 100 100 96 90 84 84 89 95 99 100 90 43 44 65 81 81 63 60 55 80
100 100 100 100 100 100 100 100 100 100 100 100 100 100 100 100 100 100 100 94 89 85 84 79 76 69 51 44 48 50 62 76 86 89 78 76 72 86
100 100 100 100 100 100 100 100 100 100 100 100 100 100 99 100 100 100 100 94 88 86 67 27 26 39 48 52 54 50 57 82 90 87 79 80 78 65
100 100 100 100 100 100 100 100 100 100 100 100 100 100 97 99 100 100 100 93 85 39 22 33 46 50 50 46 48 56 80 96 93 91 82 78 82 70

GFSNE_500_rhum_096.txt.gz
RH
74 74 82 81 88 84 73 68 62 56 56 60 53 39 35 34 38 42 25 29 17 16 22 23 22 19 14 14 13 12 11 11 13 17 18 22 27 27
82 85 89 92 76 68 67 67 63 60 58 56 44 34 36 39 45 40 44 31 19 27 28 27 23 18 17 18 20 19 17 17 18 21 27 33 34 32
86 93 90 81 73 74 70 67 65 60 63 57 42 33 39 42 45 40 48 25 27 32 30 27 23 21 25 29 29 27 26 28 31 32 34 36 37 35
97 98 93 80 75 71 70 65 60 55 61 67 49 45 41 42 45 53 37 32 35 39 31 30 30 32 35 36 35 35 36 38 38 39 40 41 40 39
100 93 94 95 86 76 66 58 56 60 66 75 70 51 41 45 53 50 37 55 58 35 35 36 37 39 39 40 40 39 41 43 44 43 42 41 40 40
89 80 69 68 66 66 63 61 62 76 76 68 54 45 50 59 60 47 74 58 41 39 38 41 42 40 38 35 39 40 40 40 39 37 35 33 33 32
36 40 50 51 56 57 61 65 56 55 60 58 57 66 72 59 73 91 60 53 48 42 44 44 43 40 36 35 36 38 38 34 32 31 29 25 23 24
42 49 46 50 59 71 72 67 72 81 75 81 78 85 77 84 97 71 58 67 46 48 49 48 40 37 36 37 36 34 31 31 33 33 28 23 22 20
56 56 56 57 62 82 95 94 97 94 95 81 81 77 95 98 99 76 90 55 55 56 58 52 41 36 32 30 31 32 34 34 32 31 27 26 23 18
57 62 65 73 84 90 95 100 99 100 100 98 100 99 97 99 99 97 67 62 64 65 64 52 44 38 36 36 33 33 33 32 29 29 30 32 30 20
68 68 77 84 71 94 100 100 100 100 100 100 100 100 99 99 100 84 84 79 77 75 69 57 53 45 42 42 39 36 34 36 37 40 43 42 35 23
83 78 88 99 98 98 98 100 100 100 100 100 100 100 99 100 98 100 100 93 93 86 77 67 62 58 55 52 47 44 43 46 49 54 61 61 52 39
100 99 88 100 100 98 100 100 100 100 100 100 100 99 99 100 99 100 100 100 94 85 79 79 78 76 72 65 64 61 58 58 61 65 72 79 68 60
97 99 100 98 100 100 100 100 100 100 100 100 100 99 100 100 100 100 100 98 97 89 87 86 87 90 92 91 90 83 78 79 80 77 76 85 92 83
95 100 99 94 100 100 100 100 100 100 100 100 100 100 100 100 100 100 100 97 100 99 94 87 90 96 98 96 92 91 91 91 88 87 89 90 90 81
100 100 95 95 100 100 100 100 100 100 100 100 100 100 99 100 100 100 100 100 100 97 99 95 92 98 100 100 97 88 91 86 85 94 91 85 84 77
100 100 100 100 100 100 100 100 100 100 100 100 100 100 100 98 98 100 100 94 93 94 99 100 99 100 100 99 100 93 94 91 83 80 84 85 71 34
99 100 100 100 100 100 100 100 100 99 96 100 100 99 100 100 100 100 94 93 96 99 99 96 97 96 98 91 90 89 90 83 81 78 63 44 52 70
99 100 98 100 100 100 100 100 100 99 100 100 99 97 97 97 99 100 100 100 100 97 95 93 89 92 92 87 86 81 72 55 38 40 50 59 67 78
78 76 84 93 98 100 100 100 100 100 100 100 100 100 100 100 100 100 100 100 100 98 96 91 90 92 86 83 78 30 29 38 46 51 53 56 62 85
100 99 97 97 96 97 100 100 100 100 100 100 100 100 100 100 100 99 99 98 100 99 96 91 87 94 90 48 27 36 43 47 50 48 47 53 76 99
99 100 100 100 100 100 100 100 100 100 100 100 100 100 100 100 100 100 100 100 100 100 100 98 90 88 36 23 36 44 44 42 47 61 80 90 100 94
60 75 97 100 100 100 100 100 100 100 100 100 100 100 100 100 100 100 100 100 100 97 100 100 90 48 24 36 40 38 43 67 88 95 96 80 88 94

GFSNE_500_rhum_099.txt.gz
RH
92 96 93 93 94 95 87 83 83 77 65 65 66 65 60 56 51 37 34 39 42 46 46 32 19 29 28 23 18 16 16 16 16 14 14 16 20 26
97 96 96 96 95 93 91 89 89 82 71 67 65 65 60 56 50 39 37 41 42 43 50 24 29 32 29 23 19 21 24 25 23 23 25 29 30 31
91 88 91 96 96 93 84 96 92 85 78 72 68 63 58 64 59 38 38 41 41 51 43 32 35 46 29 26 28 31 32 31 32 33 34 34 34 35
95 77 73 79 74 86 88 92 94 91 84 89 78 63 64 77 79 70 50 40 51 54 34 37 58 33 34 35 38 39 39 39 38 37 38 39 40 39
85 80 76 82 91 92 99 100 97 95 87 81 78 86 78 81 82 60 44 57 53 48 52 64 45 38 39 42 43 46 44 40 38 39 41 41 38 31
86 80 80 85 85 90 84 70 64 57 59 62 63 61 66 64 50 46 62 62 59 54 83 63 42 44 44 43 44 41 39 37 36 35 33 29 28 26
35 33 33 35 32 33 51 60 60 64 64 66 65 53 62 66 69 77 76 63 58 88 59 53 55 49 48 45 40 39 35 36 35 30 30 31 32 27
33 34 38 35 43 51 53 53 56 68 86 80 63 91 84 90 96 89 83 89 100 71 70 74 54 53 52 44 39 36 32 32 30 30 31 29 28 25
43 44 43 49 54 55 56 60 66 75 92 100 95 100 100 100 88 86 87 100 95 76 98 69 62 61 56 46 40 34 33 32 31 31 28 26 26 27
43 53 64 60 61 62 66 71 81 91 100 100 99 100 100 100 100 100 100 100 98 100 86 79 76 69 60 54 46 40 38 37 35 32 32 32 34 38
53 60 64 73 82 86 77 78 90 77 91 100 100 100 99 100 100 100 100 100 100 100 99 97 90 76 65 60 54 49 48 48 43 40 40 42 45 48
64 67 72 76 88 89 89 94 100 100 100 100 100 100 100 100 100 100 100 100 100 100 100 98 96 82 76 73 66 62 63 60 56 57 58 56 58 61
70 74 81 90 96 98 100 82 100 100 99 100 99 100 100 100 100 100 100 100 100 100 100 100 90 80 78 79 77 78 79 80 84 82 77 76 77 76
77 77 80 88 90 100 100 96 94 100 100 100 100 100 100 100 100 100 100 100 100 100 100 100 98 91 85 82 88 88 86 87 94 96 91 86 82 77
80 81 80 89 86 96 97 98 96 100 100 100 100 100 100 99 100 100 100 100 100 100 100 100 100 100 92 91 94 90 87 94 94 90 89 82 81 80
80 82 83 86 97 99 100 100 100 100 100 100 100 100 100 100 100 100 100 100 100 100 100 96 95 93 96 98 88 78 86 90 89 86 79 78 78 67
82 89 90 96 100 99 97 100 100 97 97 100 100 100 100 98 100 100 100 100 99 100 98 94 94 94 98 94 89 82 82 80 73 76 73 70 59 44
90 91 98 100 100 100 99 94 95 100 99 100 100 100 100 100 100 100 100 100 100 100 99 100 98 95 100 95 96 93 83 70 67 62 57 37 30 38
92 97 98 92 96 100 100 100 100 100 100 100 100 100 99 100 100 100 100 100 100 100 100 100 97 99 100 99 100 94 79 74 64 34 25 37 43 46
96 99 100 100 100 100 96 95 95 96 100 100 100 100 100 100 100 100 100 100 100 100 100 100 99 97 100 100 100 89 78 74 34 28 40 45 47 46
97 99 94 96 100 100 100 100 100 100 100 100 100 100 99 100 100 100 100 100 100 100 100 100 88 98 100 100 100 93 76 48 26 39 43 48 52 65
32 37 46 68 87 99 100 100 100 100 100 100 100 100 100 100 100 100 100 100 100 100 100 100 87 92 100 100 100 98 79 25 37 44 51 62 74 82
26 26 26 29 35 41 83 100 100 100 100 100 100 100 100 100 100 100 100 100 100 100 100 100 96 94 100 100 100 100 42 29 43 54 64 58 61 47

GFSNE_500_rhum_102.txt.gz
RH
16 16 15 47 53 74 78 85 80 81 79 75 81 85 84 78 72 68 70 59 50 38 37 41 43 53 43 25 31 39 23 18 17 18 20 17 17 19
15 14 22 63 70 64 77 74 70 74 74 70 74 89 88 82 81 85 85 72 71 60 41 47 52 55 37 32 46 28 26 21 26 28 27 26 29 32
16 30 40 76 94 91 77 77 72 77 66 62 73 86 86 86 87 93 88 84 92 86 90 63 59 49 34 41 37 34 28 31 34 35 34 36 36 34
29 41 72 88 87 76 62 67 70 81 85 97 100 100 100 94 90 89 84 96 96 87 88 62 66 44 39 52 34 36 38 40 41 41 39 34 32 33
58 63 66 76 75 60 58 65 88 97 100 100 99 93 80 77 71 67 66 74 92 85 72 59 53 46 58 48 40 44 46 46 42 36 38 34 32 28
79 91 94 65 52 56 57 56 55 56 61 66 64 61 65 66 69 70 56 54 56 52 59 58 58 78 81 46 57 50 47 42 40 41 41 34 29 27
94 92 49 33 30 32 34 37 41 48 52 59 57 61 67 75 73 57 65 71 77 83 83 74 79 99 63 78 57 53 47 42 43 43 39 31 29 29
36 32 33 33 36 42 43 44 50 54 57 56 61 71 78 92 81 76 98 100 100 96 100 93 97 86 97 85 63 56 47 43 43 40 33 31 31 27
26 31 33 36 40 41 43 53 55 56 59 60 70 77 93 90 98 94 100 100 97 96 96 100 96 97 100 91 72 61 51 46 42 40 35 34 31 29
35 31 33 38 40 44 53 62 67 68 70 70 68 84 84 100 91 99 100 99 99 100 100 100 99 100 100 96 85 67 55 51 47 44 42 40 36 34
37 39 38 35 44 57 54 58 67 76 78 78 83 93 98 100 100 100 99 100 100 100 100 100 100 100 100 100 92 74 64 60 55 52 52 49 46 45
44 37 35 43 54 59 67 78 92 96 85 84 92 96 100 100 100 100 100 100 100 100 100 100 100 100 100 100 98 89 80 77 74 71 67 64 64 64
45 35 35 59 64 70 74 84 78 84 95 92 83 99 100 100 100 100 100 100 100 100 100 100 100 100 100 100 100 96 95 94 91 87 87 91 90 87
44 40 50 71 68 66 72 78 74 83 91 94 81 97 100 100 100 100 100 100 100 100 100 100 100 100 100 100 100 100 100 100 100 93 89 91 90 86
60 64 67 74 71 64 69 84 94 90 93 95 94 100 100 100 100 100 100 100 100 100 100 100 100 100 100 100 100 100 100 98 100 92 87 92 91 85
62 61 62 59 66 77 84 89 90 92 96 97 98 99 95 95 100 100 100 100 100 100 100 100 100 100 100 99 96 100 98 94 93 94 93 89 84 70
75 81 82 82 89 93 96 95 100 100 94 96 99 97 94 94 94 100 100 100 100 100 100 100 100 98 96 94 97 96 94 93 100 100 93 81 70 60
95 89 85 92 96 100 100 98 100 100 100 99 94 88 87 97 100 100 100 97 100 100 100 96 97 95 99 98 99 98 96 98 99 100 95 81 66 55
98 94 92 90 99 100 100 100 100 100 98 96 97 100 100 99 100 100 100 100 100 98 100 100 100 97 99 99 100 100 90 90 94 96 87 81 72 26
100 93 94 99 100 100 100 100 100 100 100 100 100 100 100 100 100 100 100 100 100 100 100 100 100 88 92 100 100 97 84 88 95 92 86 84 47 28
95 83 74 67 70 84 93 98 100 100 100 100 100 100 100 100 100 100 100 100 99 100 99 97 93 94 100 100 100 97 88 90 89 91 91 88 30 32
60 34 33 32 28 28 28 29 33 50 84 100 100 100 100 100 100 100 99 99 99 100 100 100 96 97 100 100 100 100 96 86 87 91 100 79 27 34
35 31 28 29 33 38 41 44 44 39 35 39 69 100 100 100 100 100 100 100 100 100 100 100 99 99 100 100 100 100 100 97 83 88 100 85 30 34

GFSNE_500_rhum_105.txt.gz
RH
21 17 16 15 14 15 17 15 13 20 48 66 78 74 69 74 78 78 86 90 88 86 87 93 79 73 58 42 65 54 28 38 30 22 16 16 49 16
19 18 17 16 15 17 17 16 25 49 75 85 82 76 69 70 74 80 100 96 96 94 91 96 97 94 56 83 61 48 33 41 26 22 23 27 25 23
20 20 19 16 16 18 25 43 76 80 72 65 58 60 79 88 97 99 97 94 96 96 98 95 98 97 91 54 79 40 35 29 29 28 32 33 33 35
24 21 18 16 19 40 63 74 82 67 61 53 57 68 92 100 100 98 97 96 97 94 89 95 94 87 95 93 77 41 34 32 38 38 39 39 39 35
20 19 22 35 49 60 67 82 78 71 67 58 52 52 57 63 75 75 68 62 66 72 61 56 80 88 91 80 71 40 51 40 47 44 43 39 37 36
27 48 56 50 48 70 80 64 35 26 29 30 33 41 45 51 57 59 60 59 66 67 59 52 63 58 59 59 68 59 81 69 52 51 44 38 37 35
52 29 16 16 18 25 29 29 29 33 36 38 42 48 51 55 56 62 66 75 74 62 68 72 68 65 86 61 99 96 79 82 59 51 44 39 37 33
18 16 15 15 21 26 30 31 32 36 40 43 52 53 56 60 62 70 81 85 87 81 91 95 96 100 99 100 99 87 100 91 70 54 48 43 36 32
19 19 20 22 31 28 25 25 30 35 43 50 60 66 66 69 71 82 89 97 100 99 98 100 99 100 100 100 99 100 100 99 85 60 51 45 40 36
24 24 21 28 33 33 30 26 31 38 47 49 56 66 75 78 75 81 95 95 100 100 100 99 96 95 100 99 100 100 100 100 92 64 51 46 42 40
32 30 27 28 34 38 35 26 39 53 58 58 71 84 86 90 99 98 99 100 100 100 100 100 98 100 100 100 100 100 100 100 98 79 60 53 50 49
36 35 34 35 43 44 36 30 57 58 59 63 70 81 84 80 94 98 99 96 100 100 100 100 100 100 100 100 100 100 100 100 100 88 83 71 66 64
41 40 44 50 50 44 37 43 62 57 58 70 72 82 88 86 84 94 96 100 100 100 100 100 100 100 100 100 100 100 100 100 100 99 100 97 89 86
47 60 65 57 50 48 50 64 66 56 56 62 80 86 94 89 80 97 96 93 96 96 96 100 100 100 100 100 100 100 100 100 98 98 97 96 95 95
88 78 63 60 58 57 58 60 58 55 58 73 87 86 100 99 94 92 90 91 94 99 100 100 100 100 100 100 100 100 100 100 100 99 94 93 93 95
88 79 71 67 62 59 64 71 79 86 83 85 97 99 99 99 100 100 100 95 94 99 100 100 100 100 100 100 100 100 100 100 98 100 100 99 96 93
77 73 73 77 81 82 84 90 94 96 89 89 98 100 100 100 100 100 97 92 89 100 100 100 100 100 100 100 100 100 100 100 100 100 98 98 98 100
81 81 86 86 86 90 85 92 98 97 100 100 100 100 100 100 100 93 84 84 95 99 100 100 100 100 100 100 98 100 100 100 100 100 100 100 97 100
92 91 93 94 99 99 99 99 99 100 100 100 100 100 100 96 95 92 93 99 100 100 100 100 100 100 100 98 100 100 96 93 100 100 100 100 95 95
99 97 97 98 97 100 98 97 97 99 99 98 98 98 100 97 98 100 100 100 97 94 100 100 100 93 83 94 100 100 88 87 100 100 100 100 100 93
97 96 93 95 100 80 38 34 37 42 50 60 80 96 95 97 100 100 100 100 100 100 100 100 98 98 100 100 100 100 90 89 100 100 100 100 100 99
98 95 95 94 69 37 35 32 28 26 25 27 28 27 28 42 82 91 98 100 100 100 100 100 96 89 100 100 100 100 98 93 98 100 100 100 100 100
55 50 45 44 39 36 33 32 36 38 38 39 41 44 47 46 42 44 62 87 97 100 100 100 96 89 97 100 100 100 100 98 86 96 100 100 100 100

GFSNE_500_rhum_108.txt.gz
RH
37 34 34 40 42 36 22 20 19 19 17 17 18 22 55 67 94 97 95 93 86 95 83 92 97 100 97 99 96 89 80 61 50 30 34 36 43 40
29 21 17 24 26 23 22 22 23 17 17 20 37 51 78 86 84 79 72 73 100 99 97 96 95 98 97 95 98 90 52 92 74 32 29 26 33 18
22 21 22 24 24 27 28 25 18 20 20 38 62 80 78 72 73 71 70 91 100 98 96 98 99 100 99 100 98 99 98 75 57 32 26 25 24 26
25 22 25 22 24 22 18 20 26 41 56 74 90 70 47 49 39 34 36 49 68 77 79 86 83 91 92 97 96 91 66 98 56 29 27 32 32 33
23 24 23 21 20 22 39 52 50 52 36 22 20 22 21 22 26 30 37 46 53 57 55 54 65 73 61 57 78 100 99 100 44 32 34 40 37 38
20 19 20 26 38 46 19 13 11 10 11 16 22 25 25 28 33 40 45 51 55 55 58 69 78 69 60 57 78 89 93 97 45 53 50 52 44 44
22 26 28 29 24 18 15 13 11 14 19 19 20 25 28 34 41 47 50 53 57 60 70 75 81 66 76 75 79 61 77 78 96 84 92 56 54 51
33 36 34 26 23 18 18 16 13 18 24 23 18 22 29 36 42 55 61 62 69 69 91 96 98 89 96 94 77 68 80 100 100 99 92 80 60 54
44 46 38 30 24 22 21 18 20 28 26 24 20 22 37 44 46 57 70 74 77 79 84 88 100 100 100 100 97 100 100 100 98 100 100 98 67 58
29 28 32 31 30 27 26 24 23 22 23 27 23 28 45 47 59 68 69 74 81 94 99 100 94 100 100 99 99 100 100 98 100 100 100 99 73 62
37 39 38 34 32 32 32 31 27 28 32 32 28 37 46 57 62 76 82 88 87 100 100 100 96 100 98 92 97 100 100 100 100 100 99 98 80 64
58 52 45 41 40 38 36 33 36 40 40 35 37 48 50 61 67 83 80 88 85 89 97 100 98 98 100 100 100 100 100 100 100 100 100 99 99 79
48 38 40 39 36 35 38 43 49 47 42 40 55 54 50 62 72 78 86 84 84 86 88 91 90 93 100 100 100 100 100 100 100 100 99 98 97 93
55 52 48 46 46 52 64 68 57 55 58 57 59 57 54 65 82 84 92 86 87 86 87 87 84 95 99 100 100 100 100 100 100 100 99 97 95 97
54 58 60 63 80 84 74 65 63 58 54 54 60 66 72 81 90 98 100 100 92 86 86 91 100 100 100 100 100 97 100 100 100 100 100 98 94 94
85 82 77 81 84 82 78 72 66 61 69 78 84 85 87 97 100 100 100 100 100 98 99 98 99 100 100 100 100 100 100 100 100 100 100 98 94 93
85 78 77 78 79 80 80 78 84 84 83 92 91 90 95 98 100 100 100 100 98 99 100 98 96 98 100 100 100 100 100 100 100 100 99 100 96 98
66 67 75 78 82 91 90 85 82 86 86 86 88 89 91 97 100 100 100 100 100 100 99 95 98 100 100 100 100 100 100 100 100 100 100 100 96 96
78 80 81 79 92 98 96 89 92 96 93 86 91 96 97 99 100 100 100 100 100 100 93 93 100 100 100 100 100 100 100 100 100 100 100 98 86 91
95 86 84 91 93 92 92 96 96 100 99 96 95 95 96 96 95 96 96 98 100 98 97 98 99 91 83 92 100 100 98 93 84 88 99 99 93 94
93 91 91 91 87 90 90 92 96 90 44 35 36 37 37 39 51 69 84 88 88 93 98 100 100 94 100 100 100 100 93 93 94 100 100 100 97 94
98 96 95 91 86 86 90 90 88 52 38 34 30 28 27 31 34 32 32 35 59 89 99 98 96 91 98 100 100 100 97 93 88 88 100 100 100 100
100 100 98 96 88 73 56 49 46 40 38 37 36 38 39 39 38 38 40 48 49 50 76 100 100 100 100 100 100 100 100 100 89 83 100 100 100 100

GFSNE_500_rhum_111.txt.gz
RH
43 40 38 33 24 22 21 24 24 18 15 14 18 19 19 24 40 53 63 74 73 72 68 78 88 100 98 99 100 99 97 99 96 98 57 53 32 56
33 28 26 26 27 24 26 24 16 14 15 16 17 18 27 38 54 74 82 78 72 65 63 69 92 99 99 100 100 99 99 99 100 87 76 75 42 76
27 30 31 26 23 20 17 15 15 15 16 19 24 32 34 39 38 36 19 19 22 26 34 50 74 75 86 90 98 98 99 100 98 92 99 95 58 86
33 29 25 24 22 19 17 17 16 18 23 26 21 14 9 10 13 17 20 20 24 30 38 47 54 52 64 69 76 81 96 98 100 96 96 91 43 55
24 23 23 20 20 18 17 16 18 24 30 16 12 10 9 12 14 17 19 22 28 36 40 48 55 51 57 67 74 69 56 68 99 79 99 71 37 27
23 21 20 21 19 18 18 21 28 25 17 15 14 12 14 16 17 15 17 26 32 37 46 51 56 59 66 78 83 69 64 73 100 100 100 92 72 42
24 23 23 22 21 23 27 28 25 22 20 18 17 16 18 17 16 14 16 24 34 43 56 60 61 63 78 94 88 78 82 86 96 99 100 99 94 68
26 27 27 27 31 36 41 41 29 24 23 21 20 17 18 17 17 16 17 31 34 42 59 68 69 69 90 91 100 98 97 87 100 79 91 98 97 98
29 27 30 36 42 36 30 31 30 30 29 26 24 20 24 22 22 20 24 32 39 51 59 66 74 80 91 99 98 100 100 100 98 81 96 100 100 100
31 37 37 41 37 29 35 38 36 32 29 27 28 27 30 29 26 24 29 41 46 64 72 74 86 98 98 98 100 100 100 100 100 100 100 100 100 100
25 26 29 33 39 42 50 46 43 38 34 30 30 33 37 35 33 36 37 48 54 73 82 89 81 97 92 99 100 100 100 100 100 100 100 100 100 100
39 40 45 45 55 60 47 44 41 36 35 35 43 48 45 41 42 48 45 50 62 74 80 89 88 96 97 92 80 100 99 94 100 100 100 100 100 100
55 66 60 58 66 54 49 50 47 45 42 42 51 57 50 48 56 62 55 51 73 82 87 90 88 87 87 88 92 100 100 100 100 100 100 100 100 100
74 65 65 62 57 57 48 39 46 59 74 77 66 59 54 52 55 60 58 60 83 98 98 91 79 83 87 88 90 95 98 98 98 100 100 100 100 100
69 75 72 69 59 52 54 56 68 77 81 76 70 64 56 60 70 73 80 86 99 100 100 100 90 89 94 100 93 95 98 100 100 100 100 100 100 100
99 97 90 78 73 72 72 75 77 77 75 76 73 70 72 77 88 87 85 93 100 100 100 100 100 100 100 99 100 96 96 100 100 98 94 100 100 100
100 94 83 78 79 74 72 73 79 80 85 86 82 82 82 84 89 88 93 99 100 100 100 100 100 100 100 100 99 100 100 100 99 100 99 96 100 100
91 80 75 69 65 69 72 77 82 86 93 91 87 95 94 90 89 94 94 98 100 100 100 100 100 100 100 100 99 98 100 100 100 100 100 100 97 100
80 75 74 76 81 84 81 85 90 96 95 97 97 97 97 96 97 98 99 99 100 100 100 100 100 100 98 97 95 99 100 100 100 100 100 100 100 100
86 82 80 80 88 95 92 91 95 98 93 94 98 97 97 95 99 99 100 99 99 100 100 100 100 92 87 100 100 100 100 96 93 96 98 100 100 100
93 88 88 90 93 94 93 96 96 97 100 99 96 95 80 39 42 43 43 40 40 58 83 94 94 91 94 95 100 100 90 90 94 92 96 100 100 100
98 100 96 91 85 91 93 95 96 93 90 85 87 83 50 38 37 33 32 34 35 37 38 36 35 42 64 84 100 100 97 93 91 96 99 100 100 98
100 98 98 93 86 82 81 88 97 92 79 57 48 46 43 41 41 40 43 44 45 44 42 41 39 42 46 50 78 100 100 100 99 86 100 100 100 99

GFSNE_500_rhum_117.txt.gz
RH
96 97 96 91 71 81 67 42 28 23 19 19 16 14 14 13 12 13 16 20 19 19 9 9 9 9 9 12 13 16 20 27 51 79 99 98 100 97
97 96 96 80 93 78 45 33 27 28 24 18 15 17 19 16 16 16 18 21 22 14 11 11 10 9 9 13 16 16 22 24 34 39 73 100 97 100
96 84 70 63 56 46 35 30 28 25 25 20 20 21 16 16 16 16 20 24 22 16 13 14 11 10 10 10 16 23 31 31 35 36 41 74 99 97
96 58 47 51 48 44 48 44 33 24 23 26 22 26 22 17 17 20 24 25 21 18 17 16 13 12 11 10 15 27 37 41 39 41 40 57 75 99
88 64 60 65 50 41 40 34 27 23 24 28 28 26 22 19 21 24 26 21 20 21 22 17 15 15 14 13 15 27 54 45 45 50 53 55 69 96
85 70 57 50 36 34 33 30 28 26 30 34 30 26 24 22 26 31 28 23 24 26 23 19 17 16 16 18 21 34 58 52 48 60 68 70 79 96
96 86 60 43 58 47 46 32 27 27 32 30 28 25 24 28 33 43 33 29 30 27 26 22 21 19 20 22 31 43 58 64 57 63 70 74 83 99
93 80 74 64 69 40 35 40 34 30 31 30 27 27 30 34 30 32 36 35 34 34 30 28 27 24 25 38 49 59 63 64 82 86 83 98 98 100
85 80 64 67 69 49 42 38 35 33 32 28 30 30 31 34 31 39 46 43 39 31 34 38 35 32 39 54 66 72 67 72 89 96 99 99 100 100
76 76 77 64 50 45 40 39 36 34 30 29 25 23 24 27 38 49 44 42 37 38 39 46 43 44 47 59 76 83 73 83 90 100 100 100 99 100
69 62 56 50 47 42 42 40 37 34 30 26 24 28 37 45 55 45 46 51 48 46 53 54 51 55 54 64 85 87 78 85 89 93 100 97 100 100
69 64 53 47 42 41 40 40 37 30 25 25 35 46 49 59 60 56 44 37 62 64 61 56 53 56 57 56 88 88 90 97 92 85 85 100 98 91
74 61 42 36 33 32 31 29 27 30 32 40 36 51 62 63 55 47 53 71 73 68 62 55 58 64 71 81 92 97 97 97 98 95 86 94 86 94
64 57 40 40 32 36 36 38 38 48 58 62 63 66 67 55 62 68 61 73 75 68 61 61 73 87 88 97 97 99 99 98 99 100 96 100 100 100
70 69 68 62 67 71 66 72 67 63 70 74 74 77 76 78 75 76 83 78 76 71 72 76 88 96 94 100 100 100 100 98 97 99 96 94 97 95
100 100 99 95 80 73 76 76 82 79 88 91 82 74 76 77 77 86 85 85 81 76 79 86 92 100 100 100 100 100 100 100 100 100 100 99 99 100
98 97 93 93 92 96 96 95 89 79 81 82 72 67 68 72 80 86 93 90 87 88 91 92 98 100 100 100 100 100 100 100 100 100 100 100 100 98
95 97 94 91 100 96 92 85 100 88 85 76 72 68 76 84 85 87 99 100 95 92 94 96 100 100 100 100 100 100 100 100 100 100 100 100 99 100
97 100 100 99 95 97 94 93 95 93 87 82 84 85 93 90 88 97 100 94 88 93 98 99 98 96 96 100 100 100 100 100 100 100 100 100 100 100
100 100 100 100 100 100 97 99 98 98 94 90 88 89 94 98 96 92 97 93 87 90 94 94 85 96 100 100 100 100 97 100 100 100 100 100 100 100
100 100 100 100 100 100 98 100 100 98 88 91 98 100 99 100 100 99 96 95 97 95 95 80 56 50 59 63 61 69 83 98 100 100 100 100 100 100
100 100 100 100 100 100 100 100 100 100 99 97 97 97 93 98 99 100 99 96 90 88 90 90 61 43 40 43 47 45 41 38 38 42 69 97 100 100
100 100 100 100 100 100 100 97 100 100 97 94 93 78 63 66 76 85 90 94 95 96 85 78 75 62 56 51 53 54 53 51 49 45 44 41 41 42

GFSNE_500_rhum_120.txt.gz
RH
98 97 94 94 85 97 100 98 95 76 49 42 25 25 20 18 29 18 15 11 11 12 13 20 22 18 15 15 11 11 9 10 14 14 15 18 20 64
96 98 97 93 99 97 99 97 96 92 64 36 29 27 25 24 21 22 24 19 15 15 17 22 24 21 19 17 14 12 10 11 17 20 19 19 21 30
95 97 96 98 97 97 96 96 92 66 46 40 35 32 28 24 25 26 26 24 18 18 22 24 25 23 21 21 17 15 13 12 15 22 24 25 25 30
97 97 98 96 97 95 94 90 77 49 53 56 45 30 26 23 24 29 29 23 20 21 25 26 23 24 25 23 20 17 14 13 14 22 27 26 30 31
98 97 97 98 88 90 90 84 73 58 48 41 33 28 27 26 31 28 25 24 23 25 31 33 27 27 28 26 22 18 16 16 17 24 35 27 32 37
88 100 99 97 96 96 95 93 78 47 37 40 36 32 27 27 31 29 25 24 24 28 32 35 30 32 31 31 24 21 20 19 19 34 44 35 35 42
100 100 98 99 99 99 85 70 49 62 58 47 41 38 39 36 32 30 27 27 28 31 30 35 37 40 36 28 26 24 24 24 28 42 50 49 43 50
98 97 97 96 97 97 95 96 86 81 75 48 44 43 38 34 34 31 29 28 31 32 34 42 43 39 35 33 33 33 32 38 41 51 68 65 62 72
96 97 97 98 96 97 97 90 77 74 72 62 47 44 39 37 36 30 28 27 23 27 41 46 43 43 43 41 39 41 41 47 72 64 71 77 77 83
96 97 96 98 98 96 91 87 83 79 62 46 44 42 40 37 33 29 27 27 35 40 47 49 48 47 46 47 49 47 47 65 78 84 92 94 81 88
100 95 98 98 89 88 90 79 56 50 48 46 43 42 40 37 31 25 29 34 36 43 54 44 32 50 57 55 50 48 52 68 89 85 96 100 100 100
98 96 89 82 74 67 64 66 66 60 49 45 44 40 34 25 26 28 33 42 54 57 44 43 56 64 61 53 46 46 53 76 99 95 95 100 96 99
99 98 99 96 97 99 97 91 74 50 41 37 30 28 28 34 43 48 57 62 60 50 50 63 58 62 54 50 50 56 71 93 100 100 99 97 97 84
100 99 99 98 93 85 75 56 42 39 38 32 46 54 54 54 66 67 65 63 63 63 58 69 69 68 61 58 67 68 88 100 100 100 98 95 100 95
98 91 87 78 70 69 70 65 61 55 71 78 74 67 71 78 85 79 72 71 58 72 71 78 77 71 72 74 79 83 95 100 100 100 100 99 95 97
100 93 89 90 99 97 95 97 94 94 96 86 86 81 86 87 81 68 62 61 66 77 87 84 82 79 84 88 86 91 100 100 100 100 100 100 100 100
98 97 100 100 100 98 98 98 95 98 96 99 100 92 80 78 68 58 57 61 69 77 96 90 84 87 88 88 89 94 100 100 100 100 97 99 100 100
100 96 98 100 100 100 100 97 96 98 100 98 91 95 88 74 70 63 71 78 77 82 95 91 88 94 95 94 98 99 99 98 100 100 95 94 95 100
92 100 100 100 95 97 100 100 100 100 99 92 95 89 83 80 77 78 84 87 82 85 97 96 86 91 93 97 100 97 91 93 94 98 98 100 98 100
99 100 100 100 100 100 100 100 98 96 100 98 86 80 80 82 81 81 83 82 86 95 99 98 97 100 100 97 95 90 95 98 100 100 98 100 98 99
100 100 100 100 100 100 100 100 100 100 100 100 83 76 84 85 81 82 88 86 93 95 100 96 100 100 100 80 67 58 61 70 67 72 87 100 100 100
100 100 100 100 100 100 100 100 100 100 100 98 86 86 93 89 86 88 89 88 92 94 95 92 92 91 96 89 72 53 43 39 38 39 42 42 45 58
100 100 100 100 100 100 100 100 100 100 97 98 92 85 97 91 87 92 91 75 68 75 81 82 90 96 92 84 81 83 80 75 66 58 59 56 54 53

GFSNE_500_rhum_123.txt.gz
RH
96 93 91 97 95 98 96 96 94 80 72 98 95 81 60 54 31 24 23 23 28 22 22 23 22 21 17 18 21 24 22 21 19 16 14 9 11 15
96 93 86 95 94 96 96 90 94 98 98 98 100 92 65 59 32 29 31 40 34 24 23 24 25 22 21 21 23 25 25 24 22 20 17 11 10 14
96 97 98 95 96 95 93 96 98 97 97 98 97 90 91 57 60 57 50 31 27 24 26 25 24 22 23 25 29 28 28 26 27 23 17 13 11 15
96 93 98 99 98 95 95 95 98 97 96 95 95 90 88 72 70 56 38 33 27 27 27 29 24 25 24 24 34 32 31 32 32 23 20 16 12 18
92 97 99 97 97 97 98 98 97 96 94 94 95 96 74 59 47 36 33 33 31 32 36 30 28 27 26 29 33 33 38 35 29 23 23 18 15 24
93 92 98 96 97 98 97 97 96 95 95 96 95 95 85 51 48 41 51 41 40 38 34 32 29 28 30 33 36 38 37 33 28 26 25 20 22 23
94 97 98 97 98 97 97 97 99 96 96 89 86 75 73 71 66 59 65 46 45 38 36 32 29 28 25 30 40 42 42 40 40 36 30 25 35 34
98 96 97 97 98 100 96 97 96 95 95 96 96 96 91 86 81 88 76 50 43 39 37 32 28 28 34 41 44 45 43 45 40 36 39 35 42 56
94 95 95 96 96 98 98 97 96 97 98 97 98 98 96 94 94 72 49 47 46 41 38 30 29 30 33 38 42 34 33 44 48 46 44 68 70 66
96 95 97 99 99 98 96 94 98 98 99 99 99 99 98 89 62 53 49 46 47 40 32 24 26 31 43 44 34 30 46 56 49 47 56 75 84 69
97 98 98 98 97 96 97 96 98 100 99 98 100 96 75 62 60 54 63 62 48 29 24 30 38 48 52 41 37 47 53 50 43 45 62 87 84 87
100 99 100 100 100 100 100 99 99 98 98 95 72 71 78 80 66 60 51 45 36 41 45 48 53 57 47 44 51 46 47 50 45 45 62 100 100 95
99 99 98 98 98 98 98 99 98 100 98 99 100 100 94 79 60 56 51 50 50 51 58 66 60 55 54 62 66 59 58 52 55 62 81 100 100 100
100 100 100 99 99 100 100 100 100 100 100 100 94 86 74 70 62 67 69 62 65 70 72 69 66 61 64 72 72 65 62 63 66 76 99 100 100 100
100 99 99 100 99 99 99 100 100 100 100 99 96 92 84 81 83 82 77 74 76 74 67 66 67 67 76 80 78 72 75 78 80 84 99 100 100 100
100 100 100 99 100 100 100 100 100 100 100 100 100 100 98 99 97 94 84 80 79 70 58 58 60 68 78 87 80 79 86 86 90 87 93 96 99 100
100 99 100 100 100 100 100 100 100 100 100 100 100 100 99 98 100 96 85 77 70 58 55 60 66 75 87 93 89 92 87 92 93 95 95 95 95 100
97 92 96 100 100 100 100 100 100 100 100 100 100 98 100 99 97 93 88 78 70 67 72 76 75 78 97 98 100 98 90 89 90 91 96 97 100 100
93 87 86 94 100 100 100 100 100 99 99 100 100 98 100 100 98 92 86 78 76 79 81 84 85 92 94 100 100 92 85 86 96 98 90 93 94 100
93 100 100 100 99 100 100 92 99 100 100 100 100 100 100 100 96 88 82 77 78 76 78 79 90 96 92 95 97 92 94 98 93 97 98 94 93 98
100 99 100 100 100 100 98 100 100 100 100 100 100 100 96 100 99 90 84 83 79 77 77 82 93 97 98 98 89 90 99 94 78 71 80 90 88 88
100 100 100 100 100 100 100 100 100 100 100 100 100 100 100 100 100 95 88 86 78 83 84 87 92 99 100 100 97 92 90 96 83 62 48 46 47 45
100 100 100 100 100 100 100 100 100 100 100 100 100 100 100 100 100 90 86 88 84 85 88 91 82 79 87 94 100 98 91 86 88 92 91 84 74 67

GFSNE_500_rhum_126.txt.gz
RH
98 97 98 97 97 97 96 96 94 82 91 92 94 95 92 74 80 94 93 78 55 32 29 28 31 35 32 24 24 25 21 20 22 24 29 25 28 26
97 96 94 95 96 96 95 96 90 77 82 94 92 98 98 94 98 98 82 70 59 36 38 46 44 33 31 28 29 28 25 25 25 28 30 29 28 25
96 94 96 96 85 93 88 86 88 96 90 89 97 98 98 97 97 96 86 75 58 64 66 62 37 36 32 34 34 30 28 27 26 29 31 33 28 25
84 91 97 96 97 98 96 89 97 96 95 91 97 97 95 97 99 98 93 90 92 69 77 44 40 42 42 40 35 33 30 27 24 28 30 28 31 29
97 96 98 97 97 100 96 92 100 90 100 99 95 90 98 96 96 96 96 91 83 82 54 45 52 60 46 41 38 35 30 27 25 32 34 29 31 34
99 99 98 98 97 99 91 94 93 100 98 98 99 97 96 96 96 95 96 89 87 72 67 75 74 68 48 45 42 35 31 27 24 30 32 30 39 37
98 98 95 95 98 97 96 96 98 99 97 99 98 96 94 95 96 91 85 90 90 85 95 90 91 60 52 46 40 34 27 27 30 31 30 32 34 32
99 99 98 97 96 98 97 99 98 98 96 97 96 97 98 99 98 98 100 98 97 98 94 91 88 67 53 46 35 26 28 31 32 30 28 38 40 41
96 98 98 98 97 98 100 100 98 98 91 96 97 96 94 98 97 98 97 98 98 94 92 70 68 68 46 35 27 30 34 37 36 33 43 47 40 41
97 98 98 98 98 97 98 98 97 97 98 96 98 94 98 99 98 98 97 96 96 95 93 81 65 53 43 39 38 37 42 44 43 53 44 41 35 46
97 97 98 97 96 96 96 99 99 96 96 99 97 99 98 98 98 97 97 97 98 85 73 66 53 46 42 42 42 44 49 46 44 47 52 40 41 42
95 98 98 97 97 98 98 95 99 100 99 97 100 100 100 99 97 99 98 96 98 92 77 65 58 53 50 46 48 53 52 54 56 59 57 48 40 52
100 100 98 98 97 99 98 100 100 99 99 99 100 100 100 98 99 98 98 98 97 89 74 68 63 59 56 60 62 66 70 70 68 63 61 62 73 77
99 99 99 98 100 99 100 100 100 100 100 100 99 98 98 100 99 100 95 93 92 83 78 72 63 60 66 62 60 63 70 76 72 66 73 78 84 100
85 97 98 99 100 100 100 99 99 100 100 100 100 100 100 100 95 93 96 96 98 99 89 75 72 69 62 53 59 66 74 83 78 76 81 85 98 100
74 73 77 97 99 100 97 97 98 100 99 100 100 99 100 100 100 100 98 98 100 99 83 77 76 66 53 55 63 73 84 84 82 86 91 92 100 100
79 66 69 64 75 97 100 100 100 100 100 100 99 99 100 100 100 100 100 98 100 100 85 74 69 61 59 66 74 86 100 98 94 90 91 100 100 100
100 88 93 90 87 100 99 100 100 100 100 100 100 100 100 100 100 100 99 100 99 93 89 80 74 71 77 80 79 94 100 98 95 93 93 98 100 100
92 100 100 100 100 100 100 100 100 100 100 100 100 100 100 100 100 97 97 100 91 82 78 81 81 82 83 81 84 88 90 98 100 96 92 93 100 100
74 69 91 96 100 98 99 100 100 100 100 100 100 100 100 100 100 99 100 99 92 78 74 81 82 79 78 77 84 92 99 100 99 100 98 99 98 100
83 68 67 78 100 100 100 100 100 100 100 100 100 100 100 100 100 100 100 94 85 88 84 86 83 80 83 85 87 90 92 95 97 97 99 99 94 81
100 88 96 100 100 100 100 100 100 100 100 99 100 100 100 100 100 100 99 93 91 96 97 99 83 86 92 88 89 89 86 92 97 97 98 100 96 90
100 100 96 93 100 100 100 100 100 100 100 100 100 100 100 100 100 100 100 96 89 100 98 100 100 97 100 100 90 76 71 81 93 100 100 100 98 98